Time,TemperatureF,DewpointF,PressureIn,WindDirection,WindDirectionDegrees,WindSpeedMPH,WindSpeedGustMPH,Humidity,HourlyPrecipIn,Conditions,Clouds,dailyrainin,SoftwareType,DateUTC
2013-01-15 00:01:00,20.3,-4.3,29.18,North,0,0.0,0.0,33,0.00,CLR,SCT,0.00,WeatherDisplay:10.37,2013-01-15 05:01:00,
2013-01-15 00:03:00,20.3,-4.3,29.18,North,0,0.0,0.0,33,0.00,CLR,SCT,0.00,WeatherDisplay:10.37,2013-01-15 05:03:00,
2013-01-15 00:05:00,20.3,-4.3,29.18,North,0,0.0,0.0,33,0.00,CLR,SCT,0.00,WeatherDisplay:10.37,2013-01-15 05:05:00,
2013-01-15 00:06:00,20.3,-4.3,29.18,North,0,0.0,0.0,33,0.00,CLR,SCT,0.00,WeatherDisplay:10.37,2013-01-15 05:06:00,
2013-01-15 00:07:00,20.3,-6.3,29.18,North,0,0.0,0.0,30,0.00,CLR,SCT,0.00,WeatherDisplay:10.37,2013-01-15 05:07:00,
2013-01-15 00:08:00,20.3,-4.3,29.18,North,0,0.0,0.0,33,0.00,CLR,SCT,0.00,WeatherDisplay:10.37,2013-01-15 05:08:00,
2013-01-15 00:10:00,20.3,-4.3,29.18,North,0,0.0,0.0,33,0.00,CLR,SCT,0.00,WeatherDisplay:10.37,2013-01-15 05:10:00,
2013-01-15 00:12:00,20.3,-4.3,29.18,North,0,0.0,0.0,33,0.00,CLR,SCT,0.00,WeatherDisplay:10.37,2013-01-15 05:12:00,
2013-01-15 00:13:00,20.3,-4.3,29.18,North,0,0.0,0.0,33,0.00,CLR,SCT,0.00,WeatherDisplay:10.37,2013-01-15 05:13:00,
2013-01-15 00:14:00,20.3,-4.3,29.18,North,0,0.0,0.0,33,0.00,CLR,SCT,0.00,WeatherDisplay:10.37,2013-01-15 05:14:00,
2013-01-15 00:19:00,20.3,-4.3,29.18,North,0,0.0,0.0,33,0.00,CLR,SCT,0.00,WeatherDisplay:10.37,2013-01-15 05:19:00,
2013-01-15 00:20:00,20.3,-4.3,29.18,North,0,0.0,0.0,33,0.00,CLR,SCT,0.00,WeatherDisplay:10.37,2013-01-15 05:20:00,
2013-01-15 00:22:00,20.3,-4.3,29.19,North,0,0.0,0.0,33,0.00,CLR,SCT,0.00,WeatherDisplay:10.37,2013-01-15 05:22:00,
2013-01-15 00:24:00,20.3,-4.3,29.19,North,0,0.0,0.0,33,0.00,CLR,SCT,0.00,WeatherDisplay:10.37,2013-01-15 05:24:00,
2013-01-15 00:27:00,20.3,-4.3,29.19,North,0,0.0,0.0,33,0.00,CLR,SCT,0.00,WeatherDisplay:10.37,2013-01-15 05:27:00,
2013-01-15 00:28:00,20.3,-6.3,29.19,North,0,0.0,0.0,30,0.00,CLR,SCT,0.00,WeatherDisplay:10.37,2013-01-15 05:28:00,
2013-01-15 00:29:00,20.3,-6.3,29.19,North,0,0.0,0.0,30,0.00,CLR,SCT,0.00,WeatherDisplay:10.37,2013-01-15 05:29:00,
2013-01-15 00:30:00,20.3,-4.3,29.20,North,0,0.0,0.0,33,0.00,CLR,SCT,0.00,WeatherDisplay:10.37,2013-01-15 05:30:00,
2013-01-15 00:32:00,20.3,-4.3,29.19,North,0,0.0,0.0,33,0.00,CLR,SCT,0.00,WeatherDisplay:10.37,2013-01-15 05:32:00,
2013-01-15 00:35:00,20.3,-4.3,29.20,North,0,0.0,0.0,33,0.00,CLR,SCT,0.00,WeatherDisplay:10.37,2013-01-15 05:35:00,
2013-01-15 00:36:00,20.3,-4.3,29.20,North,0,0.0,0.0,33,0.00,CLR,SCT,0.00,WeatherDisplay:10.37,2013-01-15 05:36:00,
2013-01-15 00:37:00,20.3,-4.3,29.20,North,0,0.0,0.0,33,0.00,CLR,SCT,0.00,WeatherDisplay:10.37,2013-01-15 05:37:00,
2013-01-15 00:40:00,20.3,-4.3,29.20,North,0,0.0,0.0,33,0.00,CLR,SCT,0.00,WeatherDisplay:10.37,2013-01-15 05:40:00,
2013-01-15 00:41:00,20.3,-4.3,29.21,North,0,0.0,0.0,33,0.00,CLR,SCT,0.00,WeatherDisplay:10.37,2013-01-15 05:41:00,
2013-01-15 00:42:00,20.3,-7.0,29.20,North,0,0.0,0.0,29,0.00,CLR,SCT,0.00,WeatherDisplay:10.37,2013-01-15 05:42:00,
2013-01-15 00:43:00,20.3,-6.3,29.20,North,0,0.0,0.0,30,0.00,CLR,SCT,0.00,WeatherDisplay:10.37,2013-01-15 05:43:00,
2013-01-15 00:45:00,20.3,-4.3,29.20,North,0,0.0,0.0,33,0.00,CLR,SCT,0.00,WeatherDisplay:10.37,2013-01-15 05:45:00,
2013-01-15 00:46:00,20.3,-4.3,29.20,North,0,0.0,0.0,33,0.00,CLR,SCT,0.00,WeatherDisplay:10.37,2013-01-15 05:46:00,
2013-01-15 00:47:00,20.3,-4.3,29.21,North,0,0.0,0.0,33,0.00,CLR,SCT,0.00,WeatherDisplay:10.37,2013-01-15 05:47:00,
2013-01-15 00:50:00,20.3,-4.3,29.21,North,0,0.0,0.0,33,0.00,CLR,SCT,0.00,WeatherDisplay:10.37,2013-01-15 05:50:00,
2013-01-15 00:51:00,20.3,-4.3,29.21,North,0,0.0,0.0,33,0.00,CLR,SCT,0.00,WeatherDisplay:10.37,2013-01-15 05:51:00,
2013-01-15 00:53:00,20.3,-4.3,29.21,North,0,0.0,0.0,33,0.00,CLR,SCT,0.00,WeatherDisplay:10.37,2013-01-15 05:53:00,
2013-01-15 00:55:00,20.3,-6.3,29.21,North,0,0.0,0.0,30,0.00,CLR,SCT,0.00,WeatherDisplay:10.37,2013-01-15 05:55:00,
2013-01-15 00:56:00,20.3,-4.3,29.21,North,0,0.0,0.0,33,0.00,CLR,SCT,0.00,WeatherDisplay:10.37,2013-01-15 05:56:00,
2013-01-15 00:59:00,20.3,-4.3,29.21,North,0,0.0,0.0,33,0.00,CLR,SCT,0.00,WeatherDisplay:10.37,2013-01-15 05:59:00,
2013-01-15 01:00:00,20.3,-4.3,29.22,North,0,0.0,0.0,33,0.00,CLR,SCT,0.00,WeatherDisplay:10.37,2013-01-15 06:00:00,
2013-01-15 01:02:00,20.3,-4.3,29.22,North,0,0.0,0.0,33,0.00,CLR,SCT,0.00,WeatherDisplay:10.37,2013-01-15 06:02:00,
2013-01-15 01:05:00,20.3,-7.0,29.22,North,0,0.0,0.0,29,0.00,CLR,SCT,0.00,WeatherDisplay:10.37,2013-01-15 06:05:00,
2013-01-15 01:06:00,20.3,-7.0,29.21,North,0,0.0,0.0,29,0.00,CLR,SCT,0.00,WeatherDisplay:10.37,2013-01-15 06:06:00,
2013-01-15 01:07:00,20.3,-7.0,29.22,North,0,0.0,0.0,29,0.00,CLR,SCT,0.00,WeatherDisplay:10.37,2013-01-15 06:07:00,
2013-01-15 01:09:00,18.1,-8.9,29.22,North,0,0.0,0.0,29,0.00,CLR,SCT,0.00,WeatherDisplay:10.37,2013-01-15 06:09:00,
2013-01-15 01:10:00,18.1,-8.9,29.22,North,0,0.0,0.0,29,0.00,CLR,SCT,0.00,WeatherDisplay:10.37,2013-01-15 06:10:00,
2013-01-15 01:11:00,18.1,-8.9,29.22,North,0,0.0,0.0,29,0.00,CLR,SCT,0.00,WeatherDisplay:10.37,2013-01-15 06:11:00,
2013-01-15 01:14:00,18.0,-9.0,29.21,North,0,0.0,0.0,29,0.00,CLR,SCT,0.00,WeatherDisplay:10.37,2013-01-15 06:14:00,
2013-01-15 01:16:00,18.1,-8.9,29.21,North,0,0.0,0.0,29,0.00,CLR,SCT,0.00,WeatherDisplay:10.37,2013-01-15 06:16:00,
2013-01-15 01:17:00,18.1,-8.9,29.21,North,0,0.0,0.0,29,0.00,CLR,SCT,0.00,WeatherDisplay:10.37,2013-01-15 06:17:00,
2013-01-15 01:20:00,18.1,-8.9,30.76,North,0,0.0,0.0,29,0.00,CLR,SCT,0.00,WeatherDisplay:10.37,2013-01-15 06:20:00,
2013-01-15 01:21:00,18.1,-8.9,30.77,North,0,0.0,0.0,29,0.00,CLR,SCT,0.00,WeatherDisplay:10.37,2013-01-15 06:21:00,
2013-01-15 01:23:00,18.1,-8.9,30.76,North,0,0.0,0.0,29,0.00,CLR,SCT,0.00,WeatherDisplay:10.37,2013-01-15 06:23:00,
2013-01-15 01:26:00,18.1,-8.9,30.76,North,0,0.0,0.0,29,0.00,CLR,SCT,0.00,WeatherDisplay:10.37,2013-01-15 06:26:00,
2013-01-15 01:27:00,18.1,-8.9,30.75,North,0,0.0,0.0,29,0.00,CLR,SCT,0.00,WeatherDisplay:10.37,2013-01-15 06:27:00,
2013-01-15 01:29:00,18.1,-8.9,30.76,North,0,0.0,0.0,29,0.00,CLR,SCT,0.00,WeatherDisplay:10.37,2013-01-15 06:29:00,
2013-01-15 01:32:00,18.1,-8.9,30.77,North,0,0.0,0.0,29,0.00,CLR,SCT,0.00,WeatherDisplay:10.37,2013-01-15 06:32:00,
2013-01-15 01:34:00,18.1,-8.9,30.77,North,0,0.0,0.0,29,0.00,CLR,SCT,0.00,WeatherDisplay:10.37,2013-01-15 06:34:00,
2013-01-15 01:38:00,18.1,-6.2,30.77,North,0,0.0,0.0,33,0.00,CLR,SCT,0.00,WeatherDisplay:10.37,2013-01-15 06:38:00,
2013-01-15 01:39:00,18.1,-8.9,30.76,North,0,0.0,0.0,29,0.00,CLR,SCT,0.00,WeatherDisplay:10.37,2013-01-15 06:39:00,
2013-01-15 01:40:00,18.1,-8.9,30.78,North,0,0.0,0.0,29,0.00,CLR,SCT,0.00,WeatherDisplay:10.37,2013-01-15 06:40:00,
2013-01-15 01:44:00,18.1,-8.9,30.77,North,0,0.0,0.0,29,0.00,CLR,SCT,0.00,WeatherDisplay:10.37,2013-01-15 06:44:00,
2013-01-15 01:45:00,18.1,-8.9,30.77,North,0,0.0,0.0,29,0.00,CLR,SCT,0.00,WeatherDisplay:10.37,2013-01-15 06:45:00,
2013-01-15 01:49:00,18.1,-8.9,30.77,North,0,0.0,0.0,29,0.00,CLR,SCT,0.00,WeatherDisplay:10.37,2013-01-15 06:49:00,
2013-01-15 01:50:00,18.1,-8.9,30.77,North,0,0.0,0.0,29,0.00,CLR,SCT,0.00,WeatherDisplay:10.37,2013-01-15 06:50:00,
2013-01-15 01:53:00,18.1,-8.9,30.78,North,0,0.0,0.0,29,0.00,CLR,SCT,0.00,WeatherDisplay:10.37,2013-01-15 06:53:00,
2013-01-15 01:54:00,18.1,-8.9,30.78,North,0,0.0,0.0,29,0.00,CLR,SCT,0.00,WeatherDisplay:10.37,2013-01-15 06:54:00,
2013-01-15 01:56:00,18.1,-8.9,30.78,North,0,0.0,0.0,29,0.00,CLR,SCT,0.00,WeatherDisplay:10.37,2013-01-15 06:56:00,
2013-01-15 01:57:00,18.1,-8.9,30.78,North,0,0.0,0.0,29,0.00,CLR,SCT,0.00,WeatherDisplay:10.37,2013-01-15 06:57:00,
2013-01-15 01:58:00,18.1,-8.9,30.78,North,0,0.0,0.0,29,0.00,CLR,SCT,0.00,WeatherDisplay:10.37,2013-01-15 06:58:00,
2013-01-15 01:59:00,18.1,-8.9,30.79,North,0,0.0,0.0,29,0.00,CLR,SCT,0.00,WeatherDisplay:10.37,2013-01-15 06:59:00,
2013-01-15 02:02:00,18.1,-8.9,30.79,North,0,0.0,0.0,29,0.00,CLR,SCT,0.00,WeatherDisplay:10.37,2013-01-15 07:02:00,
2013-01-15 02:03:00,18.1,-8.9,30.79,North,0,0.0,0.0,29,0.00,CLR,SCT,0.00,WeatherDisplay:10.37,2013-01-15 07:03:00,
2013-01-15 02:04:00,18.1,-8.9,30.79,North,0,0.0,0.0,29,0.00,CLR,SCT,0.00,WeatherDisplay:10.37,2013-01-15 07:04:00,
2013-01-15 02:07:00,18.1,-8.9,30.79,North,0,0.0,0.0,29,0.00,CLR,SCT,0.00,WeatherDisplay:10.37,2013-01-15 07:07:00,
2013-01-15 02:08:00,18.1,-8.9,30.78,North,0,0.0,0.0,29,0.00,CLR,SCT,0.00,WeatherDisplay:10.37,2013-01-15 07:08:00,
2013-01-15 02:09:00,18.1,-8.9,30.79,North,0,0.0,0.0,29,0.00,CLR,SCT,0.00,WeatherDisplay:10.37,2013-01-15 07:09:00,
2013-01-15 02:13:00,18.1,-8.9,30.79,North,0,0.0,0.0,29,0.00,CLR,SCT,0.00,WeatherDisplay:10.37,2013-01-15 07:13:00,
2013-01-15 02:15:00,18.1,-8.9,30.79,North,0,0.0,0.0,29,0.00,CLR,SCT,0.00,WeatherDisplay:10.37,2013-01-15 07:15:00,
2013-01-15 02:18:00,18.1,-8.9,30.79,North,0,0.0,0.0,29,0.00,CLR,SCT,0.00,WeatherDisplay:10.37,2013-01-15 07:18:00,
2013-01-15 02:19:00,18.1,-8.9,30.79,North,0,0.0,0.0,29,0.00,CLR,SCT,0.00,WeatherDisplay:10.37,2013-01-15 07:19:00,
2013-01-15 02:23:00,16.0,-10.7,30.79,North,0,0.0,0.0,29,0.00,CLR,SCT,0.00,WeatherDisplay:10.37,2013-01-15 07:23:00,
2013-01-15 02:24:00,16.0,-10.7,30.79,North,0,0.0,0.0,29,0.00,CLR,SCT,0.00,WeatherDisplay:10.37,2013-01-15 07:24:00,
2013-01-15 02:28:00,16.2,-10.6,30.79,North,0,0.0,0.0,29,0.00,CLR,SCT,0.00,WeatherDisplay:10.37,2013-01-15 07:28:00,
2013-01-15 02:29:00,16.2,-10.6,30.79,North,0,0.0,0.0,29,0.00,CLR,SCT,0.00,WeatherDisplay:10.37,2013-01-15 07:29:00,
2013-01-15 02:33:00,16.3,-10.4,30.79,North,0,0.0,0.0,29,0.00,CLR,SCT,0.00,WeatherDisplay:10.37,2013-01-15 07:33:00,
2013-01-15 02:34:00,16.3,-10.4,30.79,North,0,0.0,0.0,29,0.00,CLR,SCT,0.00,WeatherDisplay:10.37,2013-01-15 07:34:00,
2013-01-15 02:37:00,16.5,-10.3,30.79,North,0,0.0,0.0,29,0.00,CLR,SCT,0.00,WeatherDisplay:10.37,2013-01-15 07:37:00,
2013-01-15 02:39:00,16.5,-10.3,30.79,North,0,0.0,0.0,29,0.00,CLR,SCT,0.00,WeatherDisplay:10.37,2013-01-15 07:39:00,
2013-01-15 02:42:00,16.5,-10.3,30.79,North,0,0.0,0.0,29,0.00,CLR,SCT,0.00,WeatherDisplay:10.37,2013-01-15 07:42:00,
2013-01-15 02:44:00,16.7,-10.1,30.79,North,0,0.0,0.0,29,0.00,CLR,SCT,0.00,WeatherDisplay:10.37,2013-01-15 07:44:00,
2013-01-15 02:47:00,16.7,-10.1,30.80,North,0,0.0,0.0,29,0.00,CLR,SCT,0.00,WeatherDisplay:10.37,2013-01-15 07:47:00,
2013-01-15 02:48:00,16.7,-10.1,30.80,North,0,0.0,0.0,29,0.00,CLR,SCT,0.00,WeatherDisplay:10.37,2013-01-15 07:48:00,
2013-01-15 02:49:00,16.7,-10.1,30.80,North,0,0.0,0.0,29,0.00,CLR,SCT,0.00,WeatherDisplay:10.37,2013-01-15 07:49:00,
2013-01-15 02:51:00,16.7,-10.1,30.80,North,0,0.0,0.0,29,0.00,CLR,SCT,0.00,WeatherDisplay:10.37,2013-01-15 07:51:00,
2013-01-15 02:54:00,16.7,-10.1,30.80,North,0,0.0,0.0,29,0.00,CLR,SCT,0.00,WeatherDisplay:10.37,2013-01-15 07:54:00,
2013-01-15 02:56:00,16.7,-10.1,30.80,North,0,0.0,0.0,29,0.00,CLR,SCT,0.00,WeatherDisplay:10.37,2013-01-15 07:56:00,
2013-01-15 02:57:00,16.7,-10.1,30.81,North,0,0.0,0.0,29,0.00,CLR,SCT,0.00,WeatherDisplay:10.37,2013-01-15 07:57:00,
2013-01-15 03:00:00,16.7,-10.1,30.81,North,0,0.0,0.0,29,0.00,CLR,SCT,0.00,WeatherDisplay:10.37,2013-01-15 08:00:00,
2013-01-15 03:01:00,16.7,-10.1,30.81,North,0,0.0,0.0,29,0.00,CLR,SCT,0.00,WeatherDisplay:10.37,2013-01-15 08:01:00,
2013-01-15 03:02:00,16.7,-10.1,30.81,North,0,0.0,0.0,29,0.00,CLR,SCT,0.00,WeatherDisplay:10.37,2013-01-15 08:02:00,
2013-01-15 03:03:00,16.7,-10.1,30.81,North,0,0.0,0.0,29,0.00,CLR,SCT,0.00,WeatherDisplay:10.37,2013-01-15 08:03:00,
2013-01-15 03:06:00,16.7,-10.1,30.81,North,0,0.0,0.0,29,0.00,CLR,SCT,0.00,WeatherDisplay:10.37,2013-01-15 08:06:00,
2013-01-15 03:07:00,16.7,-10.1,30.81,North,0,0.0,0.0,29,0.00,CLR,SCT,0.00,WeatherDisplay:10.37,2013-01-15 08:07:00,
2013-01-15 03:08:00,16.7,-10.1,30.81,North,0,0.0,0.0,29,0.00,CLR,SCT,0.00,WeatherDisplay:10.37,2013-01-15 08:08:00,
2013-01-15 03:11:00,16.7,-10.1,30.82,North,0,0.0,0.0,29,0.00,CLR,SCT,0.00,WeatherDisplay:10.37,2013-01-15 08:11:00,
2013-01-15 03:13:00,16.7,-10.1,30.82,North,0,0.0,0.0,29,0.00,CLR,SCT,0.00,WeatherDisplay:10.37,2013-01-15 08:13:00,
2013-01-15 03:14:00,16.7,-10.1,30.82,North,0,0.0,0.0,29,0.00,CLR,SCT,0.00,WeatherDisplay:10.37,2013-01-15 08:14:00,
2013-01-15 03:15:00,16.7,-10.8,30.83,North,0,0.0,0.0,28,0.00,CLR,SCT,0.00,WeatherDisplay:10.37,2013-01-15 08:15:00,
2013-01-15 03:16:00,16.7,-10.1,30.83,North,0,0.0,0.0,29,0.00,CLR,SCT,0.00,WeatherDisplay:10.37,2013-01-15 08:16:00,
2013-01-15 03:19:00,16.7,-7.5,30.83,North,0,0.0,0.0,33,0.00,CLR,SCT,0.00,WeatherDisplay:10.37,2013-01-15 08:19:00,
2013-01-15 03:21:00,16.7,-10.8,30.84,North,0,0.0,0.0,28,0.00,CLR,SCT,0.00,WeatherDisplay:10.37,2013-01-15 08:21:00,
2013-01-15 03:22:00,16.7,-7.5,30.84,North,0,0.0,0.0,33,0.00,CLR,SCT,0.00,WeatherDisplay:10.37,2013-01-15 08:22:00,
2013-01-15 03:25:00,16.7,-7.5,30.84,North,0,0.0,0.0,33,0.00,CLR,SCT,0.00,WeatherDisplay:10.37,2013-01-15 08:25:00,
2013-01-15 03:26:00,16.7,-7.5,30.83,North,0,0.0,0.0,33,0.00,CLR,SCT,0.00,WeatherDisplay:10.37,2013-01-15 08:26:00,
2013-01-15 03:27:00,16.7,-7.5,30.84,North,0,0.0,0.0,33,0.00,CLR,SCT,0.00,WeatherDisplay:10.37,2013-01-15 08:27:00,
2013-01-15 03:31:00,16.7,-8.1,30.84,North,0,0.0,0.0,32,0.00,CLR,SCT,0.00,WeatherDisplay:10.37,2013-01-15 08:31:00,
2013-01-15 03:32:00,16.7,-8.1,30.84,North,0,0.0,0.0,32,0.00,CLR,SCT,0.00,WeatherDisplay:10.37,2013-01-15 08:32:00,
2013-01-15 03:34:00,16.7,-10.1,30.84,North,0,0.0,0.0,29,0.00,CLR,SCT,0.00,WeatherDisplay:10.37,2013-01-15 08:34:00,
2013-01-15 03:39:00,16.7,-7.5,30.84,North,0,0.0,0.0,33,0.00,CLR,SCT,0.00,WeatherDisplay:10.37,2013-01-15 08:39:00,
2013-01-15 03:40:00,16.7,-8.1,30.84,North,0,0.0,0.0,32,0.00,CLR,SCT,0.00,WeatherDisplay:10.37,2013-01-15 08:40:00,
2013-01-15 03:41:00,16.7,-8.1,30.83,North,0,0.0,0.0,32,0.00,CLR,SCT,0.00,WeatherDisplay:10.37,2013-01-15 08:41:00,
2013-01-15 03:46:00,16.7,-8.1,30.85,North,0,0.0,0.0,32,0.00,CLR,SCT,0.00,WeatherDisplay:10.37,2013-01-15 08:46:00,
2013-01-15 03:47:00,16.7,-10.8,30.83,North,0,0.0,0.0,28,0.00,CLR,SCT,0.00,WeatherDisplay:10.37,2013-01-15 08:47:00,
2013-01-15 03:51:00,16.7,-8.1,30.84,North,0,0.0,0.0,32,0.00,CLR,SCT,0.00,WeatherDisplay:10.37,2013-01-15 08:51:00,
2013-01-15 03:52:00,16.7,-8.1,30.83,North,0,0.0,0.0,32,0.00,CLR,SCT,0.00,WeatherDisplay:10.37,2013-01-15 08:52:00,
2013-01-15 03:54:00,16.7,-8.1,30.83,North,0,0.0,0.0,32,0.00,CLR,SCT,0.00,WeatherDisplay:10.37,2013-01-15 08:54:00,
2013-01-15 03:56:00,16.7,-8.1,30.84,North,0,0.0,0.0,32,0.00,CLR,SCT,0.00,WeatherDisplay:10.37,2013-01-15 08:56:00,
2013-01-15 03:57:00,16.7,-8.1,30.83,North,0,0.0,0.0,32,0.00,CLR,SCT,0.00,WeatherDisplay:10.37,2013-01-15 08:57:00,
2013-01-15 03:58:00,16.7,-8.1,30.83,North,0,0.0,0.0,32,0.00,CLR,SCT,0.00,WeatherDisplay:10.37,2013-01-15 08:58:00,
2013-01-15 04:02:00,16.7,-8.1,30.84,North,0,0.0,0.0,32,0.00,CLR,SCT,0.00,WeatherDisplay:10.37,2013-01-15 09:02:00,
2013-01-15 04:03:00,16.7,-8.1,30.84,North,0,0.0,0.0,32,0.00,CLR,SCT,0.00,WeatherDisplay:10.37,2013-01-15 09:03:00,
2013-01-15 04:05:00,16.7,-8.1,30.84,North,0,0.0,0.0,32,0.00,CLR,SCT,0.00,WeatherDisplay:10.37,2013-01-15 09:05:00,
2013-01-15 04:07:00,16.7,-8.1,30.84,North,0,0.0,0.0,32,0.00,CLR,SCT,0.00,WeatherDisplay:10.37,2013-01-15 09:07:00,
2013-01-15 04:09:00,16.7,-8.1,30.83,North,0,0.0,0.0,32,0.00,CLR,SCT,0.00,WeatherDisplay:10.37,2013-01-15 09:09:00,
2013-01-15 04:11:00,16.7,-8.1,30.83,North,0,0.0,0.0,32,0.00,CLR,SCT,0.00,WeatherDisplay:10.37,2013-01-15 09:11:00,
2013-01-15 04:12:00,16.7,-8.1,30.84,North,0,0.0,0.0,32,0.00,CLR,SCT,0.00,WeatherDisplay:10.37,2013-01-15 09:12:00,
2013-01-15 04:14:00,16.7,-8.1,30.84,North,0,0.0,0.0,32,0.00,CLR,SCT,0.00,WeatherDisplay:10.37,2013-01-15 09:14:00,
2013-01-15 04:15:00,16.7,-8.1,30.84,North,0,0.0,0.0,32,0.00,CLR,SCT,0.00,WeatherDisplay:10.37,2013-01-15 09:15:00,
2013-01-15 04:18:00,16.7,-8.1,30.83,North,0,0.0,0.0,32,0.00,CLR,SCT,0.00,WeatherDisplay:10.37,2013-01-15 09:18:00,
2013-01-15 04:20:00,16.7,-8.1,30.84,North,0,0.0,0.0,32,0.00,CLR,SCT,0.00,WeatherDisplay:10.37,2013-01-15 09:20:00,
2013-01-15 04:21:00,16.7,-8.1,30.84,North,0,0.0,0.0,32,0.00,CLR,SCT,0.00,WeatherDisplay:10.37,2013-01-15 09:21:00,
2013-01-15 04:23:00,16.7,-10.8,30.84,North,0,0.0,0.0,28,0.00,CLR,SCT,0.00,WeatherDisplay:10.37,2013-01-15 09:23:00,
2013-01-15 04:25:00,16.7,-8.1,30.84,North,0,0.0,0.0,32,0.00,CLR,SCT,0.00,WeatherDisplay:10.37,2013-01-15 09:25:00,
2013-01-15 04:27:00,16.7,-8.1,30.85,North,0,0.0,0.0,32,0.00,CLR,SCT,0.00,WeatherDisplay:10.37,2013-01-15 09:27:00,
2013-01-15 04:30:00,16.7,-10.8,30.84,North,0,0.0,0.0,28,0.00,CLR,SCT,0.00,WeatherDisplay:10.37,2013-01-15 09:30:00,
2013-01-15 04:31:00,16.7,-10.8,30.85,North,0,0.0,0.0,28,0.00,CLR,SCT,0.00,WeatherDisplay:10.37,2013-01-15 09:31:00,
2013-01-15 04:36:00,16.7,-10.8,30.85,North,0,0.0,0.0,28,0.00,CLR,SCT,0.00,WeatherDisplay:10.37,2013-01-15 09:36:00,
2013-01-15 04:37:00,16.7,-10.8,30.85,North,0,0.0,0.0,28,0.00,CLR,SCT,0.00,WeatherDisplay:10.37,2013-01-15 09:37:00,
2013-01-15 04:38:00,16.7,-10.8,30.86,North,0,0.0,0.0,28,0.00,CLR,SCT,0.00,WeatherDisplay:10.37,2013-01-15 09:38:00,
2013-01-15 04:42:00,16.7,-10.8,30.86,North,0,0.0,0.0,28,0.00,CLR,SCT,0.00,WeatherDisplay:10.37,2013-01-15 09:42:00,
2013-01-15 04:43:00,16.7,-10.8,30.86,North,0,0.0,0.0,28,0.00,CLR,SCT,0.00,WeatherDisplay:10.37,2013-01-15 09:43:00,
2013-01-15 04:44:00,16.7,-10.8,30.85,North,0,0.0,0.0,28,0.00,CLR,SCT,0.00,WeatherDisplay:10.37,2013-01-15 09:44:00,
2013-01-15 04:45:00,16.7,-10.8,30.86,North,0,0.0,0.0,28,0.00,CLR,SCT,0.00,WeatherDisplay:10.37,2013-01-15 09:45:00,
2013-01-15 04:48:00,16.7,-10.8,30.86,North,0,0.0,0.0,28,0.00,CLR,SCT,0.00,WeatherDisplay:10.37,2013-01-15 09:48:00,
2013-01-15 04:49:00,16.7,-10.8,30.87,North,0,0.0,0.0,28,0.00,CLR,SCT,0.00,WeatherDisplay:10.37,2013-01-15 09:49:00,
2013-01-15 04:50:00,16.7,-10.8,30.85,North,0,0.0,0.0,28,0.00,CLR,SCT,0.00,WeatherDisplay:10.37,2013-01-15 09:50:00,
2013-01-15 04:55:00,16.7,-10.8,30.85,North,0,0.0,0.0,28,0.00,CLR,SCT,0.00,WeatherDisplay:10.37,2013-01-15 09:55:00,
2013-01-15 04:59:00,16.7,-10.8,30.85,North,0,0.0,0.0,28,0.00,CLR,SCT,0.00,WeatherDisplay:10.37,2013-01-15 09:59:00,
2013-01-15 05:00:00,16.7,-10.8,30.85,North,0,0.0,0.0,28,0.00,CLR,SCT,0.00,WeatherDisplay:10.37,2013-01-15 10:00:00,
2013-01-15 05:01:00,16.7,-10.8,30.85,North,0,0.0,0.0,28,0.00,CLR,SCT,0.00,WeatherDisplay:10.37,2013-01-15 10:01:00,
2013-01-15 05:05:00,16.7,-10.8,30.85,North,0,0.0,0.0,28,0.00,CLR,SCT,0.00,WeatherDisplay:10.37,2013-01-15 10:05:00,
2013-01-15 05:06:00,16.7,-10.8,30.85,North,0,0.0,0.0,28,0.00,CLR,SCT,0.00,WeatherDisplay:10.37,2013-01-15 10:06:00,
2013-01-15 05:07:00,16.7,-10.8,30.85,North,0,0.0,0.0,28,0.00,CLR,SCT,0.00,WeatherDisplay:10.37,2013-01-15 10:07:00,
2013-01-15 05:10:00,16.7,-10.8,30.85,North,0,0.0,0.0,28,0.00,CLR,SCT,0.00,WeatherDisplay:10.37,2013-01-15 10:10:00,
2013-01-15 05:12:00,16.7,-10.8,30.85,North,0,0.0,0.0,28,0.00,CLR,SCT,0.00,WeatherDisplay:10.37,2013-01-15 10:12:00,
2013-01-15 05:16:00,16.7,-10.8,30.86,North,0,0.0,0.0,28,0.00,CLR,SCT,0.00,WeatherDisplay:10.37,2013-01-15 10:16:00,
2013-01-15 05:17:00,16.7,-10.8,30.86,North,0,0.0,0.0,28,0.00,CLR,SCT,0.00,WeatherDisplay:10.37,2013-01-15 10:17:00,
2013-01-15 05:19:00,16.7,-10.8,30.85,North,0,0.0,0.0,28,0.00,CLR,SCT,0.00,WeatherDisplay:10.37,2013-01-15 10:19:00,
2013-01-15 05:22:00,16.7,-10.8,30.86,North,0,0.0,0.0,28,0.00,CLR,SCT,0.00,WeatherDisplay:10.37,2013-01-15 10:22:00,
2013-01-15 05:24:00,16.7,-8.1,30.86,North,0,0.0,0.0,32,0.00,CLR,SCT,0.00,WeatherDisplay:10.37,2013-01-15 10:24:00,
2013-01-15 05:27:00,16.7,-8.1,30.86,North,0,0.0,0.0,32,0.00,CLR,SCT,0.00,WeatherDisplay:10.37,2013-01-15 10:27:00,
2013-01-15 05:28:00,16.7,-8.1,30.86,North,0,0.0,0.0,32,0.00,CLR,SCT,0.00,WeatherDisplay:10.37,2013-01-15 10:28:00,
2013-01-15 05:29:00,16.7,-8.1,30.86,North,0,0.0,0.0,32,0.00,CLR,SCT,0.00,WeatherDisplay:10.37,2013-01-15 10:29:00,
2013-01-15 05:31:00,16.7,-8.1,30.87,North,0,0.0,0.0,32,0.00,CLR,SCT,0.00,WeatherDisplay:10.37,2013-01-15 10:31:00,
2013-01-15 05:33:00,16.7,-8.1,30.86,North,0,0.0,0.0,32,0.00,CLR,SCT,0.00,WeatherDisplay:10.37,2013-01-15 10:33:00,
2013-01-15 05:34:00,16.7,-8.1,30.87,North,0,0.0,0.0,32,0.00,CLR,SCT,0.00,WeatherDisplay:10.37,2013-01-15 10:34:00,
2013-01-15 05:35:00,16.7,-10.8,30.87,North,0,0.0,0.0,28,0.00,CLR,SCT,0.00,WeatherDisplay:10.37,2013-01-15 10:35:00,
2013-01-15 05:36:00,16.7,-8.1,30.87,North,0,0.0,0.0,32,0.00,CLR,SCT,0.00,WeatherDisplay:10.37,2013-01-15 10:36:00,
2013-01-15 05:39:00,16.7,-10.8,30.88,North,0,0.0,0.0,28,0.00,CLR,SCT,0.00,WeatherDisplay:10.37,2013-01-15 10:39:00,
2013-01-15 05:41:00,16.7,-10.8,30.87,North,0,0.0,0.0,28,0.00,CLR,SCT,0.00,WeatherDisplay:10.37,2013-01-15 10:41:00,
2013-01-15 05:44:00,16.7,-8.1,30.88,North,0,0.0,0.0,32,0.00,CLR,SCT,0.00,WeatherDisplay:10.37,2013-01-15 10:44:00,
2013-01-15 05:45:00,16.7,-8.1,30.87,North,0,0.0,0.0,32,0.00,CLR,SCT,0.00,WeatherDisplay:10.37,2013-01-15 10:45:00,
2013-01-15 05:46:00,16.7,-8.1,30.88,North,0,0.0,0.0,32,0.00,CLR,SCT,0.00,WeatherDisplay:10.37,2013-01-15 10:46:00,
2013-01-15 05:48:00,16.7,-10.8,30.88,North,0,0.0,0.0,28,0.00,CLR,SCT,0.00,WeatherDisplay:10.37,2013-01-15 10:48:00,
2013-01-15 05:51:00,16.7,-10.8,30.87,North,0,0.0,0.0,28,0.00,CLR,SCT,0.00,WeatherDisplay:10.37,2013-01-15 10:51:00,
2013-01-15 05:52:00,16.7,-8.1,30.87,North,0,0.0,0.0,32,0.00,CLR,SCT,0.00,WeatherDisplay:10.37,2013-01-15 10:52:00,
2013-01-15 05:53:00,16.7,-8.1,30.88,North,0,0.0,0.0,32,0.00,CLR,SCT,0.00,WeatherDisplay:10.37,2013-01-15 10:53:00,
2013-01-15 05:56:00,16.7,-8.1,30.88,North,0,0.0,0.0,32,0.00,CLR,SCT,0.00,WeatherDisplay:10.37,2013-01-15 10:56:00,
2013-01-15 05:57:00,16.7,-8.1,30.88,North,0,0.0,0.0,32,0.00,CLR,SCT,0.00,WeatherDisplay:10.37,2013-01-15 10:57:00,
2013-01-15 05:59:00,16.7,-8.1,30.88,North,0,0.0,0.0,32,0.00,CLR,SCT,0.00,WeatherDisplay:10.37,2013-01-15 10:59:00,
2013-01-15 06:01:00,16.7,-8.1,30.87,North,0,0.0,0.0,32,0.00,CLR,SCT,0.00,WeatherDisplay:10.37,2013-01-15 11:01:00,
2013-01-15 06:04:00,16.7,-8.1,30.88,North,0,0.0,0.0,32,0.00,CLR,SCT,0.00,WeatherDisplay:10.37,2013-01-15 11:04:00,
2013-01-15 06:06:00,16.7,-8.1,30.88,North,0,0.0,0.0,32,0.00,CLR,SCT,0.00,WeatherDisplay:10.37,2013-01-15 11:06:00,
2013-01-15 06:09:00,16.7,-8.1,30.87,North,0,0.0,0.0,32,0.00,CLR,SCT,0.00,WeatherDisplay:10.37,2013-01-15 11:09:00,
2013-01-15 06:12:00,16.7,-8.1,30.88,North,0,0.0,0.0,32,0.00,CLR,SCT,0.00,WeatherDisplay:10.37,2013-01-15 11:12:00,
2013-01-15 06:14:00,16.7,-10.8,30.88,North,0,0.0,0.0,28,0.00,CLR,SCT,0.00,WeatherDisplay:10.37,2013-01-15 11:14:00,
2013-01-15 06:16:00,16.7,-8.1,30.88,North,0,0.0,0.0,32,0.00,CLR,SCT,0.00,WeatherDisplay:10.37,2013-01-15 11:16:00,
2013-01-15 06:17:00,16.7,-8.1,30.88,North,0,0.0,0.0,32,0.00,CLR,SCT,0.00,WeatherDisplay:10.37,2013-01-15 11:17:00,
2013-01-15 06:19:00,16.7,-8.1,30.89,North,0,0.0,0.0,32,0.00,CLR,SCT,0.00,WeatherDisplay:10.37,2013-01-15 11:19:00,
2013-01-15 06:22:00,16.7,-8.1,30.89,North,0,0.0,0.0,32,0.00,CLR,SCT,0.00,WeatherDisplay:10.37,2013-01-15 11:22:00,
2013-01-15 06:23:00,16.7,-8.1,30.89,North,0,0.0,0.0,32,0.00,CLR,SCT,0.00,WeatherDisplay:10.37,2013-01-15 11:23:00,
2013-01-15 06:25:00,16.7,-10.8,30.89,North,0,0.0,0.0,28,0.00,CLR,SCT,0.00,WeatherDisplay:10.37,2013-01-15 11:25:00,
2013-01-15 06:29:00,16.7,-8.1,30.89,North,0,0.0,0.0,32,0.00,CLR,SCT,0.00,WeatherDisplay:10.37,2013-01-15 11:29:00,
2013-01-15 06:31:00,16.7,-8.1,30.89,North,0,0.0,0.0,32,0.00,CLR,SCT,0.00,WeatherDisplay:10.37,2013-01-15 11:31:00,
2013-01-15 06:32:00,16.7,-8.1,30.88,North,0,0.0,0.0,32,0.00,CLR,SCT,0.00,WeatherDisplay:10.37,2013-01-15 11:32:00,
2013-01-15 06:36:00,16.7,-8.1,30.89,North,0,0.0,0.0,32,0.00,CLR,SCT,0.00,WeatherDisplay:10.37,2013-01-15 11:36:00,
2013-01-15 06:38:00,16.7,-10.8,30.88,North,0,0.0,0.0,28,0.00,CLR,SCT,0.00,WeatherDisplay:10.37,2013-01-15 11:38:00,
2013-01-15 06:40:00,16.7,-8.1,30.89,North,0,0.0,0.0,32,0.00,CLR,SCT,0.00,WeatherDisplay:10.37,2013-01-15 11:40:00,
2013-01-15 06:42:00,16.7,-8.1,30.88,North,0,0.0,0.0,32,0.00,CLR,SCT,0.00,WeatherDisplay:10.37,2013-01-15 11:42:00,
2013-01-15 06:43:00,16.7,-8.1,30.89,North,0,0.0,0.0,32,0.00,CLR,SCT,0.00,WeatherDisplay:10.37,2013-01-15 11:43:00,
2013-01-15 06:47:00,16.7,-8.1,30.89,North,0,0.0,0.0,32,0.00,CLR,SCT,0.00,WeatherDisplay:10.37,2013-01-15 11:47:00,
2013-01-15 06:48:00,16.7,-8.1,30.89,North,0,0.0,0.0,32,0.00,CLR,SCT,0.00,WeatherDisplay:10.37,2013-01-15 11:48:00,
2013-01-15 06:52:00,16.7,-10.8,30.89,North,0,0.0,0.0,28,0.00,CLR,SCT,0.00,WeatherDisplay:10.37,2013-01-15 11:52:00,
2013-01-15 06:53:00,16.7,-8.1,30.89,North,0,0.0,0.0,32,0.00,CLR,SCT,0.00,WeatherDisplay:10.37,2013-01-15 11:53:00,
2013-01-15 06:57:00,16.7,-8.1,30.90,North,0,0.0,0.0,32,0.00,CLR,SCT,0.00,WeatherDisplay:10.37,2013-01-15 11:57:00,
2013-01-15 06:58:00,16.7,-8.1,30.90,North,0,0.0,0.0,32,0.00,CLR,SCT,0.00,WeatherDisplay:10.37,2013-01-15 11:58:00,
2013-01-15 06:59:00,16.7,-8.1,30.90,North,0,0.0,0.0,32,0.00,CLR,SCT,0.00,WeatherDisplay:10.37,2013-01-15 11:59:00,
2013-01-15 07:03:00,16.7,-10.8,30.91,North,0,0.0,0.0,28,0.00,CLR,SCT,0.00,WeatherDisplay:10.37,2013-01-15 12:03:00,
2013-01-15 07:04:00,16.7,-8.1,30.90,North,0,0.0,0.0,32,0.00,CLR,SCT,0.00,WeatherDisplay:10.37,2013-01-15 12:04:00,
2013-01-15 07:07:00,16.7,-8.1,30.91,North,0,0.0,0.0,32,0.00,CLR,SCT,0.00,WeatherDisplay:10.37,2013-01-15 12:07:00,
2013-01-15 07:10:00,16.7,-8.1,30.89,North,0,0.0,0.0,32,0.00,CLR,SCT,0.00,WeatherDisplay:10.37,2013-01-15 12:10:00,
2013-01-15 07:11:00,16.7,-8.1,30.90,North,0,0.0,0.0,32,0.00,CLR,SCT,0.00,WeatherDisplay:10.37,2013-01-15 12:11:00,
2013-01-15 07:12:00,16.7,-8.1,30.90,North,0,0.0,0.0,32,0.00,CLR,SCT,0.00,WeatherDisplay:10.37,2013-01-15 12:12:00,
2013-01-15 07:13:00,16.7,-8.1,30.90,North,0,0.0,0.0,32,0.00,CLR,SCT,0.00,WeatherDisplay:10.37,2013-01-15 12:13:00,
2013-01-15 07:16:00,16.7,-10.8,30.91,North,0,0.0,0.0,28,0.00,CLR,SCT,0.00,WeatherDisplay:10.37,2013-01-15 12:16:00,
2013-01-15 07:18:00,16.7,-8.1,30.92,North,0,0.0,0.0,32,0.00,CLR,SCT,0.00,WeatherDisplay:10.37,2013-01-15 12:18:00,
2013-01-15 07:21:00,16.7,-8.1,30.91,North,0,0.0,0.0,32,0.00,CLR,SCT,0.00,WeatherDisplay:10.37,2013-01-15 12:21:00,
2013-01-15 07:22:00,16.7,-8.1,30.91,North,0,0.0,0.0,32,0.00,CLR,SCT,0.00,WeatherDisplay:10.37,2013-01-15 12:22:00,
2013-01-15 07:24:00,16.7,-8.1,30.91,North,0,0.0,0.0,32,0.00,CLR,SCT,0.00,WeatherDisplay:10.37,2013-01-15 12:24:00,
2013-01-15 07:26:00,16.7,-8.1,30.91,North,0,0.0,0.0,32,0.00,CLR,SCT,0.00,WeatherDisplay:10.37,2013-01-15 12:26:00,
2013-01-15 07:27:00,16.7,-8.1,30.91,North,0,0.0,0.0,32,0.00,CLR,SCT,0.00,WeatherDisplay:10.37,2013-01-15 12:27:00,
2013-01-15 07:28:00,16.7,-8.1,30.91,North,0,0.0,0.0,32,0.00,CLR,SCT,0.00,WeatherDisplay:10.37,2013-01-15 12:28:00,
2013-01-15 07:30:00,16.7,-8.1,30.90,North,0,0.0,0.0,32,0.00,CLR,SCT,0.00,WeatherDisplay:10.37,2013-01-15 12:30:00,
2013-01-15 07:34:00,16.7,-8.1,30.91,North,0,0.0,0.0,32,0.00,CLR,SCT,0.00,WeatherDisplay:10.37,2013-01-15 12:34:00,
2013-01-15 07:35:00,16.7,-8.1,30.90,North,0,0.0,0.0,32,0.00,CLR,SCT,0.00,WeatherDisplay:10.37,2013-01-15 12:35:00,
2013-01-15 07:36:00,16.7,-8.1,30.91,North,0,0.0,0.0,32,0.00,CLR,SCT,0.00,WeatherDisplay:10.37,2013-01-15 12:36:00,
2013-01-15 07:40:00,16.7,-10.8,30.91,North,0,0.0,0.0,28,0.00,CLR,SCT,0.00,WeatherDisplay:10.37,2013-01-15 12:40:00,
2013-01-15 07:41:00,16.7,-8.1,30.91,North,0,0.0,0.0,32,0.00,CLR,SCT,0.00,WeatherDisplay:10.37,2013-01-15 12:41:00,
2013-01-15 07:45:00,16.7,-8.1,30.91,North,0,0.0,0.0,32,0.00,CLR,SCT,0.00,WeatherDisplay:10.37,2013-01-15 12:45:00,
2013-01-15 07:46:00,16.7,-8.1,30.92,North,0,0.0,0.0,32,0.00,CLR,SCT,0.00,WeatherDisplay:10.37,2013-01-15 12:46:00,
2013-01-15 07:50:00,16.7,-10.8,30.92,North,0,0.0,0.0,28,0.00,CLR,SCT,0.00,WeatherDisplay:10.37,2013-01-15 12:50:00,
2013-01-15 07:51:00,16.7,-10.1,30.91,North,0,0.0,0.0,29,0.00,CLR,SCT,0.00,WeatherDisplay:10.37,2013-01-15 12:51:00,
2013-01-15 07:52:00,16.7,-10.1,30.91,North,0,0.0,0.0,29,0.00,CLR,SCT,0.00,WeatherDisplay:10.37,2013-01-15 12:52:00,
2013-01-15 07:53:00,16.7,-10.1,30.92,North,0,0.0,0.0,29,0.00,CLR,SCT,0.00,WeatherDisplay:10.37,2013-01-15 12:53:00,
2013-01-15 07:56:00,16.7,-10.1,30.92,North,0,0.0,0.0,29,0.00,CLR,SCT,0.00,WeatherDisplay:10.37,2013-01-15 12:56:00,
2013-01-15 07:57:00,16.7,-10.1,30.93,North,0,0.0,0.0,29,0.00,CLR,SCT,0.00,WeatherDisplay:10.37,2013-01-15 12:57:00,
2013-01-15 08:01:00,16.7,-10.1,30.93,North,0,0.0,0.0,29,0.00,CLR,SCT,0.00,WeatherDisplay:10.37,2013-01-15 13:01:00,
2013-01-15 08:02:00,16.7,-10.1,30.93,North,0,0.0,0.0,29,0.00,CLR,SCT,0.00,WeatherDisplay:10.37,2013-01-15 13:02:00,
2013-01-15 08:03:00,16.7,-10.1,30.93,North,0,0.0,0.0,29,0.00,CLR,SCT,0.00,WeatherDisplay:10.37,2013-01-15 13:03:00,
2013-01-15 08:07:00,16.7,-10.1,30.93,North,0,0.0,0.0,29,0.00,CLR,SCT,0.00,WeatherDisplay:10.37,2013-01-15 13:07:00,
2013-01-15 08:08:00,16.7,-8.1,30.94,North,0,0.0,0.0,32,0.00,CLR,SCT,0.00,WeatherDisplay:10.37,2013-01-15 13:08:00,
2013-01-15 08:10:00,16.7,-8.1,30.93,North,0,0.0,0.0,32,0.00,CLR,SCT,0.00,WeatherDisplay:10.37,2013-01-15 13:10:00,
2013-01-15 08:12:00,16.7,-8.1,30.92,North,0,0.0,0.0,32,0.00,CLR,SCT,0.00,WeatherDisplay:10.37,2013-01-15 13:12:00,
2013-01-15 08:13:00,16.7,-10.1,30.92,North,0,0.0,0.0,29,0.00,CLR,SCT,0.00,WeatherDisplay:10.37,2013-01-15 13:13:00,
2013-01-15 08:15:00,16.7,-10.1,30.93,North,0,0.0,0.0,29,0.00,CLR,SCT,0.00,WeatherDisplay:10.37,2013-01-15 13:15:00,
2013-01-15 08:16:00,16.7,-10.8,30.93,North,0,0.0,0.0,28,0.00,CLR,SCT,0.00,WeatherDisplay:10.37,2013-01-15 13:16:00,
2013-01-15 08:17:00,16.7,-10.8,30.92,North,0,0.0,0.0,28,0.00,CLR,SCT,0.00,WeatherDisplay:10.37,2013-01-15 13:17:00,
2013-01-15 08:22:00,16.7,-8.1,30.93,North,0,0.0,0.0,32,0.00,CLR,SCT,0.00,WeatherDisplay:10.37,2013-01-15 13:22:00,
2013-01-15 08:23:00,16.7,-8.1,30.92,North,0,0.0,0.0,32,0.00,CLR,SCT,0.00,WeatherDisplay:10.37,2013-01-15 13:23:00,
2013-01-15 08:24:00,16.7,-8.1,30.92,North,0,0.0,0.0,32,0.00,CLR,SCT,0.00,WeatherDisplay:10.37,2013-01-15 13:24:00,
2013-01-15 08:27:00,16.7,-8.1,30.92,North,0,0.0,0.0,32,0.00,CLR,SCT,0.00,WeatherDisplay:10.37,2013-01-15 13:27:00,
2013-01-15 08:28:00,16.7,-8.1,30.92,North,0,0.0,0.0,32,0.00,CLR,SCT,0.00,WeatherDisplay:10.37,2013-01-15 13:28:00,
2013-01-15 08:30:00,16.7,-10.8,30.92,North,0,0.0,0.0,28,0.00,CLR,SCT,0.00,WeatherDisplay:10.37,2013-01-15 13:30:00,
2013-01-15 08:34:00,16.7,-8.1,30.91,North,0,0.0,0.0,32,0.00,CLR,SCT,0.00,WeatherDisplay:10.37,2013-01-15 13:34:00,
2013-01-15 08:36:00,16.7,-8.1,30.91,North,0,0.0,0.0,32,0.00,CLR,SCT,0.00,WeatherDisplay:10.37,2013-01-15 13:36:00,
2013-01-15 08:41:00,16.7,-10.8,30.91,North,0,0.0,0.0,28,0.00,CLR,SCT,0.00,WeatherDisplay:10.37,2013-01-15 13:41:00,
2013-01-15 08:43:00,16.7,-8.1,30.90,North,0,0.0,0.0,32,0.00,CLR,SCT,0.00,WeatherDisplay:10.37,2013-01-15 13:43:00,
2013-01-15 08:44:00,16.7,-8.1,30.91,North,0,0.0,0.0,32,0.00,CLR,SCT,0.00,WeatherDisplay:10.37,2013-01-15 13:44:00,
2013-01-15 08:46:00,16.7,-8.1,30.90,North,0,0.0,0.0,32,0.00,CLR,SCT,0.00,WeatherDisplay:10.37,2013-01-15 13:46:00,
2013-01-15 08:49:00,16.7,-8.1,30.89,North,0,0.0,0.0,32,0.00,CLR,SCT,0.00,WeatherDisplay:10.37,2013-01-15 13:49:00,
2013-01-15 08:50:00,16.7,-10.8,30.89,North,0,0.0,0.0,28,0.00,CLR,SCT,0.00,WeatherDisplay:10.37,2013-01-15 13:50:00,
2013-01-15 08:51:00,16.7,-10.8,30.88,North,0,0.0,0.0,28,0.00,CLR,SCT,0.00,WeatherDisplay:10.37,2013-01-15 13:51:00,
2013-01-15 08:55:00,16.7,-10.8,30.88,North,0,0.0,0.0,28,0.00,CLR,SCT,0.00,WeatherDisplay:10.37,2013-01-15 13:55:00,
2013-01-15 08:56:00,16.7,-10.8,30.88,North,0,0.0,0.0,28,0.00,CLR,SCT,0.00,WeatherDisplay:10.37,2013-01-15 13:56:00,
2013-01-15 09:00:00,16.7,-10.8,30.89,North,0,0.0,0.0,28,0.00,CLR,SCT,0.00,WeatherDisplay:10.37,2013-01-15 14:00:00,
2013-01-15 09:01:00,16.7,-10.8,30.89,North,0,0.0,0.0,28,0.00,CLR,SCT,0.00,WeatherDisplay:10.37,2013-01-15 14:01:00,
2013-01-15 09:02:00,16.7,-10.8,30.89,North,0,0.0,0.0,28,0.00,CLR,SCT,0.00,WeatherDisplay:10.37,2013-01-15 14:02:00,
2013-01-15 09:06:00,16.7,-10.8,30.92,North,0,0.0,0.0,28,0.00,CLR,SCT,0.00,WeatherDisplay:10.37,2013-01-15 14:06:00,
2013-01-15 09:07:00,16.7,-10.1,30.92,North,0,0.0,0.0,29,0.00,CLR,SCT,0.00,WeatherDisplay:10.37,2013-01-15 14:07:00,
2013-01-15 09:10:00,16.7,-10.1,30.92,North,0,0.0,0.0,29,0.00,CLR,SCT,0.00,WeatherDisplay:10.37,2013-01-15 14:10:00,
2013-01-15 09:12:00,16.7,-10.1,30.92,North,0,0.0,0.0,29,0.00,CLR,SCT,0.00,WeatherDisplay:10.37,2013-01-15 14:12:00,
2013-01-15 09:14:00,16.7,-10.1,30.93,North,0,0.0,0.0,29,0.00,CLR,SCT,0.00,WeatherDisplay:10.37,2013-01-15 14:14:00,
2013-01-15 09:15:00,16.7,-10.1,30.93,North,0,0.0,0.0,29,0.00,CLR,SCT,0.00,WeatherDisplay:10.37,2013-01-15 14:15:00,
2013-01-15 09:17:00,16.7,-10.1,30.93,North,0,0.0,0.0,29,0.00,CLR,SCT,0.00,WeatherDisplay:10.37,2013-01-15 14:17:00,
2013-01-15 09:18:00,16.7,-10.8,30.93,North,0,0.0,0.0,28,0.00,CLR,SCT,0.00,WeatherDisplay:10.37,2013-01-15 14:18:00,
2013-01-15 09:20:00,16.7,-10.1,30.92,North,0,0.0,0.0,29,0.00,CLR,SCT,0.00,WeatherDisplay:10.37,2013-01-15 14:20:00,
2013-01-15 09:22:00,16.7,-10.1,30.92,North,0,0.0,0.0,29,0.00,CLR,SCT,0.00,WeatherDisplay:10.37,2013-01-15 14:22:00,
2013-01-15 09:23:00,16.7,-10.1,30.93,North,0,0.0,0.0,29,0.00,CLR,SCT,0.00,WeatherDisplay:10.37,2013-01-15 14:23:00,
2013-01-15 09:27:00,16.7,-10.1,30.93,North,0,0.0,0.0,29,0.00,CLR,SCT,0.00,WeatherDisplay:10.37,2013-01-15 14:27:00,
2013-01-15 09:28:00,16.7,-10.1,30.93,North,0,0.0,0.0,29,0.00,CLR,SCT,0.00,WeatherDisplay:10.37,2013-01-15 14:28:00,
2013-01-15 09:31:00,16.7,-10.1,30.94,North,0,0.0,0.0,29,0.00,CLR,SCT,0.00,WeatherDisplay:10.37,2013-01-15 14:31:00,
2013-01-15 09:33:00,16.7,-10.1,30.95,North,0,0.0,0.0,29,0.00,CLR,SCT,0.00,WeatherDisplay:10.37,2013-01-15 14:33:00,
2013-01-15 09:34:00,16.7,-10.1,30.95,North,0,0.0,0.0,29,0.00,CLR,SCT,0.00,WeatherDisplay:10.37,2013-01-15 14:34:00,
2013-01-15 09:37:00,16.7,-10.1,30.96,North,0,0.0,0.0,29,0.00,CLR,SCT,0.00,WeatherDisplay:10.37,2013-01-15 14:37:00,
2013-01-15 09:39:00,24.4,-3.3,30.96,North,0,5.3,5.3,29,0.00,CLR,SCT,0.00,WeatherDisplay:10.37,2013-01-15 14:39:00,
2013-01-15 09:41:00,24.4,-3.3,30.96,North,0,5.8,0.0,29,0.00,CLR,SCT,0.00,WeatherDisplay:10.37,2013-01-15 14:41:00,
2013-01-15 09:42:00,24.3,-3.5,30.96,North,0,5.8,5.8,29,0.00,CLR,SCT,0.00,WeatherDisplay:10.37,2013-01-15 14:42:00,
2013-01-15 09:43:00,24.3,-3.5,30.96,North,0,5.8,0.0,29,0.00,CLR,SCT,0.00,WeatherDisplay:10.37,2013-01-15 14:43:00,
2013-01-15 09:44:00,24.3,-3.5,30.96,North,0,5.8,0.0,29,0.00,CLR,SCT,0.00,WeatherDisplay:10.37,2013-01-15 14:44:00,
2013-01-15 09:47:00,24.1,-3.6,30.96,North,0,5.8,5.8,29,0.00,CLR,SCT,0.00,WeatherDisplay:10.37,2013-01-15 14:47:00,
2013-01-15 09:49:00,24.1,-3.6,30.96,North,0,5.8,5.8,29,0.00,CLR,SCT,0.00,WeatherDisplay:10.37,2013-01-15 14:49:00,
2013-01-15 09:52:00,24.1,-3.6,30.96,North,0,5.8,5.8,29,0.00,CLR,SCT,0.00,WeatherDisplay:10.37,2013-01-15 14:52:00,
2013-01-15 09:54:00,23.9,-3.8,30.96,North,0,5.8,5.8,29,0.00,CLR,SCT,0.00,WeatherDisplay:10.37,2013-01-15 14:54:00,
2013-01-15 09:56:00,23.9,-3.8,30.96,North,0,5.8,5.8,29,0.00,CLR,SCT,0.00,WeatherDisplay:10.37,2013-01-15 14:56:00,
2013-01-15 09:57:00,23.9,-3.8,30.96,North,0,5.8,5.8,29,0.00,CLR,SCT,0.00,WeatherDisplay:10.37,2013-01-15 14:57:00,
2013-01-15 10:00:00,23.7,-4.0,30.96,North,0,5.8,0.0,29,0.00,CLR,SCT,0.00,WeatherDisplay:10.37,2013-01-15 15:00:00,
2013-01-15 10:01:00,23.7,-4.0,30.96,North,0,5.8,0.0,29,0.00,CLR,SCT,0.00,WeatherDisplay:10.37,2013-01-15 15:01:00,
2013-01-15 10:02:00,23.7,-4.0,30.96,North,0,5.8,0.0,29,0.00,CLR,SCT,0.00,WeatherDisplay:10.37,2013-01-15 15:02:00,
2013-01-15 10:05:00,23.7,-4.0,30.96,North,0,5.8,0.0,29,0.00,CLR,SCT,0.00,WeatherDisplay:10.37,2013-01-15 15:05:00,
2013-01-15 10:07:00,23.7,-4.0,30.96,North,0,5.8,0.0,29,0.00,CLR,SCT,0.00,WeatherDisplay:10.37,2013-01-15 15:07:00,
2013-01-15 10:10:00,23.7,-4.0,30.96,North,0,5.8,0.0,29,0.00,CLR,SCT,0.00,WeatherDisplay:10.37,2013-01-15 15:10:00,
2013-01-15 10:11:00,23.7,-4.0,30.97,North,0,5.8,0.0,29,0.00,CLR,SCT,0.00,WeatherDisplay:10.37,2013-01-15 15:11:00,
2013-01-15 10:12:00,23.7,-4.0,30.97,North,0,5.8,0.0,29,0.00,CLR,SCT,0.00,WeatherDisplay:10.37,2013-01-15 15:12:00,
2013-01-15 10:16:00,23.7,-4.0,30.97,North,0,5.8,0.0,29,0.00,CLR,SCT,0.00,WeatherDisplay:10.37,2013-01-15 15:16:00,
2013-01-15 10:17:00,23.7,-4.0,30.97,North,0,5.8,0.0,29,0.00,CLR,SCT,0.00,WeatherDisplay:10.37,2013-01-15 15:17:00,
2013-01-15 10:18:00,23.7,-4.0,30.96,North,0,5.8,0.0,29,0.00,CLR,SCT,0.00,WeatherDisplay:10.37,2013-01-15 15:18:00,
2013-01-15 10:19:00,23.7,-4.0,30.96,North,0,5.8,0.0,29,0.00,CLR,SCT,0.00,WeatherDisplay:10.37,2013-01-15 15:19:00,
2013-01-15 10:21:00,23.7,-4.0,30.96,North,0,5.8,0.0,29,0.00,CLR,SCT,0.00,WeatherDisplay:10.37,2013-01-15 15:21:00,
2013-01-15 10:23:00,23.7,-4.7,30.96,North,0,5.8,0.0,28,0.00,CLR,SCT,0.00,WeatherDisplay:10.37,2013-01-15 15:23:00,
2013-01-15 10:25:00,23.7,-4.0,30.95,North,0,5.8,0.0,29,0.00,CLR,SCT,0.00,WeatherDisplay:10.37,2013-01-15 15:25:00,
2013-01-15 10:28:00,23.7,-4.0,30.95,North,0,5.8,0.0,29,0.00,CLR,SCT,0.00,WeatherDisplay:10.37,2013-01-15 15:28:00,
2013-01-15 10:29:00,23.7,-4.0,30.95,North,0,5.8,0.0,29,0.00,CLR,SCT,0.00,WeatherDisplay:10.37,2013-01-15 15:29:00,
2013-01-15 10:30:00,23.7,-4.0,30.94,North,0,5.8,0.0,29,0.00,CLR,SCT,0.00,WeatherDisplay:10.37,2013-01-15 15:30:00,
2013-01-15 10:32:00,23.7,-4.0,30.94,North,0,5.8,0.0,29,0.00,CLR,SCT,0.00,WeatherDisplay:10.37,2013-01-15 15:32:00,
2013-01-15 10:33:00,23.7,-4.0,30.94,North,0,5.8,0.0,29,0.00,CLR,SCT,0.00,WeatherDisplay:10.37,2013-01-15 15:33:00,
2013-01-15 10:35:00,23.7,-4.7,30.94,North,0,5.8,0.0,28,0.00,CLR,SCT,0.00,WeatherDisplay:10.37,2013-01-15 15:35:00,
2013-01-15 10:36:00,23.7,-4.0,30.94,North,0,5.8,0.0,29,0.00,CLR,SCT,0.00,WeatherDisplay:10.37,2013-01-15 15:36:00,
2013-01-15 10:38:00,23.7,-4.0,30.93,North,0,5.8,0.0,29,0.00,CLR,SCT,0.00,WeatherDisplay:10.37,2013-01-15 15:38:00,
2013-01-15 10:40:00,23.7,-4.7,30.94,North,0,5.8,0.0,28,0.00,CLR,SCT,0.00,WeatherDisplay:10.37,2013-01-15 15:40:00,
2013-01-15 10:41:00,23.7,-4.0,30.95,North,0,5.8,0.0,29,0.00,CLR,SCT,0.00,WeatherDisplay:10.37,2013-01-15 15:41:00,
2013-01-15 10:42:00,23.7,-4.7,30.93,North,0,5.8,0.0,28,0.00,CLR,SCT,0.00,WeatherDisplay:10.37,2013-01-15 15:42:00,
2013-01-15 10:43:00,23.7,-4.7,30.92,North,0,5.8,0.0,28,0.00,CLR,SCT,0.00,WeatherDisplay:10.37,2013-01-15 15:43:00,
2013-01-15 10:46:00,23.7,-4.0,30.93,North,0,5.8,0.0,29,0.00,CLR,SCT,0.00,WeatherDisplay:10.37,2013-01-15 15:46:00,
2013-01-15 10:47:00,23.7,-4.0,30.92,North,0,5.8,0.0,29,0.00,CLR,SCT,0.00,WeatherDisplay:10.37,2013-01-15 15:47:00,
2013-01-15 10:48:00,23.7,-4.0,30.92,North,0,5.8,0.0,29,0.00,CLR,SCT,0.00,WeatherDisplay:10.37,2013-01-15 15:48:00,
2013-01-15 10:52:00,23.7,-1.2,30.91,North,0,5.8,0.0,33,0.00,CLR,SCT,0.00,WeatherDisplay:10.37,2013-01-15 15:52:00,
2013-01-15 10:53:00,23.7,-1.2,30.92,North,0,5.8,0.0,33,0.00,CLR,SCT,0.00,WeatherDisplay:10.37,2013-01-15 15:53:00,
2013-01-15 10:54:00,23.7,-1.9,30.92,North,0,5.8,0.0,32,0.00,CLR,SCT,0.00,WeatherDisplay:10.37,2013-01-15 15:54:00,
2013-01-15 10:59:00,23.7,-1.2,30.92,North,0,5.8,0.0,33,0.00,CLR,SCT,0.00,WeatherDisplay:10.37,2013-01-15 15:59:00,
2013-01-15 11:00:00,23.7,-1.2,30.92,North,0,5.8,0.0,33,0.00,CLR,SCT,0.00,WeatherDisplay:10.37,2013-01-15 16:00:00,
2013-01-15 11:05:00,23.7,-1.2,30.92,North,0,5.8,0.0,33,0.00,CLR,SCT,0.00,WeatherDisplay:10.37,2013-01-15 16:05:00,
2013-01-15 11:08:00,23.7,-1.2,30.92,North,0,5.8,0.0,33,0.00,CLR,SCT,0.00,WeatherDisplay:10.37,2013-01-15 16:08:00,
2013-01-15 11:09:00,23.7,-4.7,30.93,North,0,5.8,0.0,28,0.00,CLR,SCT,0.00,WeatherDisplay:10.37,2013-01-15 16:09:00,
2013-01-15 11:10:00,23.7,-1.2,30.92,North,0,5.8,0.0,33,0.00,CLR,SCT,0.00,WeatherDisplay:10.37,2013-01-15 16:10:00,
2013-01-15 11:12:00,23.7,-1.2,30.91,North,0,5.8,0.0,33,0.00,CLR,SCT,0.00,WeatherDisplay:10.37,2013-01-15 16:12:00,
2013-01-15 11:14:00,23.7,-1.2,30.93,North,0,5.8,0.0,33,0.00,CLR,SCT,0.00,WeatherDisplay:10.37,2013-01-15 16:14:00,
2013-01-15 11:15:00,23.7,-1.2,30.92,North,0,5.8,0.0,33,0.00,CLR,SCT,0.00,WeatherDisplay:10.37,2013-01-15 16:15:00,
2013-01-15 11:17:00,23.7,-1.2,30.92,North,0,5.8,0.0,33,0.00,CLR,SCT,0.00,WeatherDisplay:10.37,2013-01-15 16:17:00,
2013-01-15 11:18:00,23.7,-1.2,30.92,North,0,5.8,0.0,33,0.00,CLR,SCT,0.00,WeatherDisplay:10.37,2013-01-15 16:18:00,
2013-01-15 11:20:00,23.7,-1.2,30.91,North,0,5.8,0.0,33,0.00,CLR,SCT,0.00,WeatherDisplay:10.37,2013-01-15 16:20:00,
2013-01-15 11:21:00,23.7,-4.7,30.91,North,0,5.8,0.0,28,0.00,CLR,SCT,0.00,WeatherDisplay:10.37,2013-01-15 16:21:00,
2013-01-15 11:22:00,23.7,-4.7,30.91,North,0,5.8,0.0,28,0.00,CLR,SCT,0.00,WeatherDisplay:10.37,2013-01-15 16:22:00,
2013-01-15 11:24:00,23.7,-4.7,30.91,North,0,5.8,0.0,28,0.00,CLR,SCT,0.00,WeatherDisplay:10.37,2013-01-15 16:24:00,
2013-01-15 11:25:00,23.7,-4.7,30.91,North,0,5.8,0.0,28,0.00,CLR,SCT,0.00,WeatherDisplay:10.37,2013-01-15 16:25:00,
2013-01-15 11:27:00,23.7,-4.7,30.91,North,0,5.8,0.0,28,0.00,CLR,SCT,0.00,WeatherDisplay:10.37,2013-01-15 16:27:00,
2013-01-15 11:28:00,23.7,-4.7,30.91,North,0,5.8,0.0,28,0.00,CLR,SCT,0.00,WeatherDisplay:10.37,2013-01-15 16:28:00,
2013-01-15 11:32:00,26.8,-2.0,30.91,North,0,0.0,0.0,28,0.00,CLR,SCT,0.00,WeatherDisplay:10.37,2013-01-15 16:32:00,
2013-01-15 11:33:00,26.8,-2.0,30.91,North,0,0.0,0.0,28,0.00,CLR,SCT,0.00,WeatherDisplay:10.37,2013-01-15 16:33:00,
2013-01-15 11:36:00,26.6,-2.2,30.91,North,0,0.0,0.0,28,0.00,CLR,SCT,0.00,WeatherDisplay:10.37,2013-01-15 16:36:00,
2013-01-15 11:38:00,26.6,-2.2,30.91,North,0,0.0,0.0,28,0.00,CLR,SCT,0.00,WeatherDisplay:10.37,2013-01-15 16:38:00,
2013-01-15 11:40:00,26.6,-2.2,30.91,North,0,0.0,0.0,28,0.00,CLR,SCT,0.00,WeatherDisplay:10.37,2013-01-15 16:40:00,
2013-01-15 11:41:00,30.0,0.8,30.91,North,0,0.0,0.0,28,0.00,CLR,SCT,0.00,WeatherDisplay:10.37,2013-01-15 16:41:00,
2013-01-15 11:44:00,30.0,0.8,30.91,North,0,0.0,0.0,28,0.00,CLR,SCT,0.00,WeatherDisplay:10.37,2013-01-15 16:44:00,
2013-01-15 11:45:00,30.0,0.8,30.91,North,0,0.0,0.0,28,0.00,CLR,SCT,0.00,WeatherDisplay:10.37,2013-01-15 16:45:00,
2013-01-15 11:47:00,26.6,-2.2,30.91,North,0,0.0,0.0,28,0.00,CLR,SCT,0.00,WeatherDisplay:10.37,2013-01-15 16:47:00,
2013-01-15 11:49:00,30.0,0.8,30.91,North,0,0.0,0.0,28,0.00,CLR,SCT,0.00,WeatherDisplay:10.37,2013-01-15 16:49:00,
2013-01-15 11:50:00,30.0,0.8,30.91,North,0,0.0,0.0,28,0.00,CLR,SCT,0.00,WeatherDisplay:10.37,2013-01-15 16:50:00,
2013-01-15 11:52:00,30.0,0.8,30.91,North,0,0.0,0.0,28,0.00,CLR,SCT,0.00,WeatherDisplay:10.37,2013-01-15 16:52:00,
2013-01-15 11:53:00,30.0,0.8,30.91,North,0,0.0,0.0,28,0.00,CLR,SCT,0.00,WeatherDisplay:10.37,2013-01-15 16:53:00,
2013-01-15 11:54:00,30.0,0.8,30.91,North,0,0.0,0.0,28,0.00,CLR,SCT,0.00,WeatherDisplay:10.37,2013-01-15 16:54:00,
2013-01-15 11:57:00,30.0,0.8,30.91,North,0,0.0,0.0,28,0.00,CLR,SCT,0.00,WeatherDisplay:10.37,2013-01-15 16:57:00,
2013-01-15 11:58:00,29.8,0.6,30.91,North,0,0.0,0.0,28,0.00,CLR,SCT,0.00,WeatherDisplay:10.37,2013-01-15 16:58:00,
2013-01-15 11:59:00,29.8,0.6,30.91,North,0,0.0,0.0,28,0.00,CLR,SCT,0.00,WeatherDisplay:10.37,2013-01-15 16:59:00,
2013-01-15 12:02:00,29.7,0.5,30.91,North,0,0.0,0.0,28,0.00,CLR,SCT,0.00,WeatherDisplay:10.37,2013-01-15 17:02:00,
2013-01-15 12:03:00,29.7,0.5,30.91,North,0,0.0,0.0,28,0.00,CLR,SCT,0.00,WeatherDisplay:10.37,2013-01-15 17:03:00,
2013-01-15 12:04:00,29.7,0.5,30.91,North,0,0.0,0.0,28,0.00,CLR,SCT,0.00,WeatherDisplay:10.37,2013-01-15 17:04:00,
2013-01-15 12:08:00,29.5,0.3,30.91,North,0,5.7,5.7,28,0.00,CLR,SCT,0.00,WeatherDisplay:10.37,2013-01-15 17:08:00,
2013-01-15 12:09:00,29.5,0.3,30.91,North,0,8.4,8.4,28,0.00,CLR,SCT,0.00,WeatherDisplay:10.37,2013-01-15 17:09:00,
2013-01-15 12:13:00,29.3,0.2,30.91,North,0,8.4,0.0,28,0.00,CLR,SCT,0.00,WeatherDisplay:10.37,2013-01-15 17:13:00,
2013-01-15 12:14:00,29.3,0.2,30.91,North,0,8.4,0.0,28,0.00,CLR,SCT,0.00,WeatherDisplay:10.37,2013-01-15 17:14:00,
2013-01-15 12:15:00,29.1,0.0,30.91,North,0,8.4,0.0,28,0.00,CLR,SCT,0.00,WeatherDisplay:10.37,2013-01-15 17:15:00,
2013-01-15 12:18:00,28.9,-0.1,30.91,North,0,8.4,0.0,28,0.00,CLR,SCT,0.00,WeatherDisplay:10.37,2013-01-15 17:18:00,
2013-01-15 12:19:00,28.9,-0.1,30.91,North,0,8.4,0.0,28,0.00,CLR,SCT,0.00,WeatherDisplay:10.37,2013-01-15 17:19:00,
2013-01-15 12:21:00,28.8,-0.3,30.91,North,0,8.4,0.0,28,0.00,CLR,SCT,0.00,WeatherDisplay:10.37,2013-01-15 17:21:00,
2013-01-15 12:23:00,28.6,-0.5,30.91,North,0,8.4,0.0,28,0.00,CLR,SCT,0.00,WeatherDisplay:10.37,2013-01-15 17:23:00,
2013-01-15 12:24:00,28.6,-0.5,30.91,North,0,8.4,0.0,28,0.00,CLR,SCT,0.00,WeatherDisplay:10.37,2013-01-15 17:24:00,
2013-01-15 12:26:00,30.4,1.1,30.91,North,0,8.4,0.0,28,0.00,CLR,SCT,0.00,WeatherDisplay:10.37,2013-01-15 17:26:00,
2013-01-15 12:28:00,30.6,1.3,30.91,North,0,8.4,0.0,28,0.00,CLR,SCT,0.00,WeatherDisplay:10.37,2013-01-15 17:28:00,
2013-01-15 12:30:00,30.9,1.6,30.91,North,0,8.4,0.0,28,0.00,CLR,SCT,0.00,WeatherDisplay:10.37,2013-01-15 17:30:00,
2013-01-15 12:32:00,30.9,1.6,30.91,North,0,8.4,0.0,28,0.00,CLR,SCT,0.00,WeatherDisplay:10.37,2013-01-15 17:32:00,
2013-01-15 12:33:00,30.9,1.6,30.91,North,0,8.4,0.0,28,0.00,CLR,SCT,0.00,WeatherDisplay:10.37,2013-01-15 17:33:00,
2013-01-15 12:34:00,31.3,1.9,30.91,North,0,8.4,0.0,28,0.00,CLR,SCT,0.00,WeatherDisplay:10.37,2013-01-15 17:34:00,
2013-01-15 12:35:00,31.3,1.9,30.91,North,0,8.4,8.4,28,0.00,CLR,SCT,0.00,WeatherDisplay:10.37,2013-01-15 17:35:00,
2013-01-15 12:37:00,31.5,2.0,30.91,North,0,8.4,8.4,28,0.00,CLR,SCT,0.00,WeatherDisplay:10.37,2013-01-15 17:37:00,
2013-01-15 12:39:00,32.2,2.7,30.91,North,0,8.4,8.4,28,0.00,CLR,SCT,0.00,WeatherDisplay:10.37,2013-01-15 17:39:00,
2013-01-15 12:41:00,32.9,3.3,30.91,North,0,8.4,8.4,28,0.00,CLR,SCT,0.00,WeatherDisplay:10.37,2013-01-15 17:41:00,
2013-01-15 12:45:00,34.7,4.9,30.91,North,0,8.4,8.4,28,0.00,CLR,SCT,0.00,WeatherDisplay:10.37,2013-01-15 17:45:00,
2013-01-15 12:46:00,34.9,5.0,30.91,North,0,8.4,8.4,28,0.00,CLR,SCT,0.00,WeatherDisplay:10.37,2013-01-15 17:46:00,
2013-01-15 12:49:00,37.0,6.9,30.91,North,0,8.4,8.4,28,0.00,CLR,SCT,0.00,WeatherDisplay:10.37,2013-01-15 17:49:00,
2013-01-15 12:51:00,38.3,8.0,30.91,North,0,8.4,0.0,28,0.00,CLR,SCT,0.00,WeatherDisplay:10.37,2013-01-15 17:51:00,
2013-01-15 12:52:00,38.3,8.0,30.91,North,0,8.4,0.0,28,0.00,CLR,SCT,0.00,WeatherDisplay:10.37,2013-01-15 17:52:00,
2013-01-15 12:56:00,38.3,8.0,30.91,North,0,8.4,0.0,28,0.00,CLR,SCT,0.00,WeatherDisplay:10.37,2013-01-15 17:56:00,
2013-01-15 12:57:00,38.3,8.0,30.91,North,0,8.4,0.0,28,0.00,CLR,SCT,0.00,WeatherDisplay:10.37,2013-01-15 17:57:00,
2013-01-15 13:00:00,37.9,7.7,30.91,North,0,8.4,0.0,28,0.00,CLR,SCT,0.00,WeatherDisplay:10.37,2013-01-15 18:00:00,
2013-01-15 13:02:00,37.9,8.5,30.77,North,0,8.4,0.0,29,0.00,CLR,SCT,0.00,WeatherDisplay:10.37,2013-01-15 18:02:00,
2013-01-15 13:03:00,37.9,8.5,30.78,North,0,8.4,0.0,29,0.00,CLR,SCT,0.00,WeatherDisplay:10.37,2013-01-15 18:03:00,
2013-01-15 13:04:00,37.6,8.1,30.78,North,0,8.4,0.0,29,0.00,CLR,SCT,0.00,WeatherDisplay:10.37,2013-01-15 18:04:00,
2013-01-15 13:05:00,37.2,7.8,30.78,North,0,8.1,0.0,29,0.00,CLR,SCT,0.00,WeatherDisplay:10.37,2013-01-15 18:05:00,
2013-01-15 13:08:00,36.9,7.5,30.78,North,0,0.0,0.0,29,0.00,CLR,SCT,0.00,WeatherDisplay:10.37,2013-01-15 18:08:00,
2013-01-15 13:09:00,36.9,7.5,30.78,North,0,0.0,0.0,29,0.00,CLR,SCT,0.00,WeatherDisplay:10.37,2013-01-15 18:09:00,
2013-01-15 13:11:00,36.1,6.9,30.78,North,0,0.0,0.0,29,0.00,CLR,SCT,0.00,WeatherDisplay:10.37,2013-01-15 18:11:00,
2013-01-15 13:13:00,35.8,6.6,30.78,North,0,0.0,0.0,29,0.00,CLR,SCT,0.00,WeatherDisplay:10.37,2013-01-15 18:13:00,
2013-01-15 13:14:00,35.6,6.4,30.78,North,0,0.0,0.0,29,0.00,CLR,SCT,0.00,WeatherDisplay:10.37,2013-01-15 18:14:00,
2013-01-15 13:16:00,35.2,6.1,30.78,North,0,0.0,0.0,29,0.00,CLR,SCT,0.00,WeatherDisplay:10.37,2013-01-15 18:16:00,
2013-01-15 13:17:00,35.2,6.1,30.78,North,0,0.0,0.0,29,0.00,CLR,SCT,0.00,WeatherDisplay:10.37,2013-01-15 18:17:00,
2013-01-15 13:20:00,34.9,5.8,30.78,North,0,0.0,0.0,29,0.00,CLR,SCT,0.00,WeatherDisplay:10.37,2013-01-15 18:20:00,
2013-01-15 13:21:00,34.9,5.8,30.78,North,0,0.0,0.0,29,0.00,CLR,SCT,0.00,WeatherDisplay:10.37,2013-01-15 18:21:00,
2013-01-15 13:22:00,34.5,5.5,30.78,North,0,0.0,0.0,29,0.00,CLR,SCT,0.00,WeatherDisplay:10.37,2013-01-15 18:22:00,
2013-01-15 13:23:00,34.5,5.5,30.78,North,0,0.0,0.0,29,0.00,CLR,SCT,0.00,WeatherDisplay:10.37,2013-01-15 18:23:00,
2013-01-15 13:25:00,34.3,5.3,30.78,North,0,0.0,0.0,29,0.00,CLR,SCT,0.00,WeatherDisplay:10.37,2013-01-15 18:25:00,
2013-01-15 13:26:00,34.3,5.3,30.78,North,0,0.0,0.0,29,0.00,CLR,SCT,0.00,WeatherDisplay:10.37,2013-01-15 18:26:00,
2013-01-15 13:28:00,34.2,5.2,30.78,North,0,0.0,0.0,29,0.00,CLR,SCT,0.00,WeatherDisplay:10.37,2013-01-15 18:28:00,
2013-01-15 13:29:00,34.2,5.2,30.78,North,0,0.0,0.0,29,0.00,CLR,SCT,0.00,WeatherDisplay:10.37,2013-01-15 18:29:00,
2013-01-15 13:30:00,34.0,5.0,30.78,North,0,0.0,0.0,29,0.00,CLR,SCT,0.00,WeatherDisplay:10.37,2013-01-15 18:30:00,
2013-01-15 13:34:00,34.0,5.0,30.78,North,0,0.0,0.0,29,0.00,CLR,SCT,0.00,WeatherDisplay:10.37,2013-01-15 18:34:00,
2013-01-15 13:36:00,34.2,5.2,30.78,North,0,0.0,0.0,29,0.00,CLR,SCT,0.00,WeatherDisplay:10.37,2013-01-15 18:36:00,
2013-01-15 13:37:00,34.2,5.2,30.78,North,0,0.0,0.0,29,0.00,CLR,SCT,0.00,WeatherDisplay:10.37,2013-01-15 18:37:00,
2013-01-15 13:39:00,34.2,5.2,30.78,North,0,0.0,0.0,29,0.00,CLR,SCT,0.00,WeatherDisplay:10.37,2013-01-15 18:39:00,
2013-01-15 13:41:00,34.2,5.2,30.78,North,0,7.3,7.3,29,0.00,CLR,SCT,0.00,WeatherDisplay:10.37,2013-01-15 18:41:00,
2013-01-15 13:45:00,34.2,5.2,30.78,North,0,7.3,0.0,29,0.00,CLR,SCT,0.00,WeatherDisplay:10.37,2013-01-15 18:45:00,
2013-01-15 13:46:00,34.2,5.2,30.78,North,0,7.3,0.0,29,0.00,CLR,SCT,0.00,WeatherDisplay:10.37,2013-01-15 18:46:00,
2013-01-15 13:47:00,34.2,5.2,30.78,North,0,7.3,0.0,29,0.00,CLR,SCT,0.00,WeatherDisplay:10.37,2013-01-15 18:47:00,
2013-01-15 13:51:00,34.3,5.3,30.78,North,0,9.5,9.5,29,0.00,CLR,SCT,0.00,WeatherDisplay:10.37,2013-01-15 18:51:00,
2013-01-15 13:52:00,34.3,5.3,30.78,North,0,9.5,9.5,29,0.00,CLR,SCT,0.00,WeatherDisplay:10.37,2013-01-15 18:52:00,
2013-01-15 13:53:00,34.3,5.3,30.78,North,0,9.5,9.5,29,0.00,CLR,SCT,0.00,WeatherDisplay:10.37,2013-01-15 18:53:00,
2013-01-15 13:54:00,34.3,5.3,30.78,North,0,9.5,9.5,29,0.00,CLR,SCT,0.00,WeatherDisplay:10.37,2013-01-15 18:54:00,
2013-01-15 13:57:00,34.5,5.5,30.78,North,0,9.5,9.5,29,0.00,CLR,SCT,0.00,WeatherDisplay:10.37,2013-01-15 18:57:00,
2013-01-15 13:59:00,34.5,5.5,30.78,North,0,9.5,9.5,29,0.00,CLR,SCT,0.00,WeatherDisplay:10.37,2013-01-15 18:59:00,
2013-01-15 14:00:00,34.5,5.5,30.78,North,0,9.5,9.5,29,0.00,CLR,SCT,0.00,WeatherDisplay:10.37,2013-01-15 19:00:00,
2013-01-15 14:02:00,34.7,5.6,30.78,North,0,9.5,9.5,29,0.00,CLR,SCT,0.00,WeatherDisplay:10.37,2013-01-15 19:02:00,
2013-01-15 14:03:00,34.9,5.8,30.78,North,0,9.2,9.2,29,0.00,CLR,SCT,0.00,WeatherDisplay:10.37,2013-01-15 19:03:00,
2013-01-15 14:05:00,34.9,5.8,30.78,North,0,6.3,6.3,29,0.00,CLR,SCT,0.00,WeatherDisplay:10.37,2013-01-15 19:05:00,
2013-01-15 14:07:00,35.4,6.3,30.78,North,0,6.3,6.3,29,0.00,CLR,SCT,0.00,WeatherDisplay:10.37,2013-01-15 19:07:00,
2013-01-15 14:08:00,35.2,6.1,30.78,North,0,6.3,6.3,29,0.00,CLR,SCT,0.00,WeatherDisplay:10.37,2013-01-15 19:08:00,
2013-01-15 14:09:00,35.2,6.1,30.78,North,0,6.3,6.3,29,0.00,CLR,SCT,0.00,WeatherDisplay:10.37,2013-01-15 19:09:00,
2013-01-15 14:11:00,35.4,6.3,30.66,North,0,6.3,6.3,29,0.00,CLR,SCT,0.00,WeatherDisplay:10.37,2013-01-15 19:11:00,
2013-01-15 14:14:00,35.4,7.7,30.66,North,0,6.3,6.3,31,0.00,CLR,SCT,0.00,WeatherDisplay:10.37,2013-01-15 19:14:00,
2013-01-15 14:15:00,36.0,9.6,30.66,North,0,6.3,6.3,33,0.00,CLR,SCT,0.00,WeatherDisplay:10.37,2013-01-15 19:15:00,
2013-01-15 14:18:00,36.3,9.9,30.66,North,0,6.3,6.3,33,0.00,CLR,SCT,0.00,WeatherDisplay:10.37,2013-01-15 19:18:00,
2013-01-15 14:19:00,36.3,9.9,30.66,North,0,6.3,6.3,33,0.00,CLR,SCT,0.00,WeatherDisplay:10.37,2013-01-15 19:19:00,
2013-01-15 14:20:00,36.3,9.9,30.66,North,0,6.9,6.9,33,0.00,CLR,SCT,0.00,WeatherDisplay:10.37,2013-01-15 19:20:00,
2013-01-15 14:22:00,36.5,10.1,30.66,North,0,6.9,6.9,33,0.00,CLR,SCT,0.00,WeatherDisplay:10.37,2013-01-15 19:22:00,
2013-01-15 14:24:00,36.5,10.1,30.66,North,0,6.9,6.9,33,0.00,CLR,SCT,0.00,WeatherDisplay:10.37,2013-01-15 19:24:00,
2013-01-15 14:25:00,36.5,10.1,30.66,North,0,6.9,6.9,33,0.00,CLR,SCT,0.00,WeatherDisplay:10.37,2013-01-15 19:25:00,
2013-01-15 14:29:00,36.5,10.1,30.66,North,0,6.9,6.9,33,0.00,CLR,SCT,0.00,WeatherDisplay:10.37,2013-01-15 19:29:00,
2013-01-15 14:30:00,36.5,10.1,30.66,North,0,6.9,6.9,33,0.00,CLR,SCT,0.00,WeatherDisplay:10.37,2013-01-15 19:30:00,
2013-01-15 14:32:00,36.7,10.2,30.66,North,0,6.9,6.9,33,0.00,CLR,SCT,0.00,WeatherDisplay:10.37,2013-01-15 19:32:00,
2013-01-15 14:36:00,36.7,10.2,30.66,North,0,8.4,8.4,33,0.00,CLR,SCT,0.00,WeatherDisplay:10.37,2013-01-15 19:36:00,
2013-01-15 14:37:00,36.9,10.4,30.66,North,0,8.4,8.4,33,0.00,CLR,SCT,0.00,WeatherDisplay:10.37,2013-01-15 19:37:00,
2013-01-15 14:38:00,36.9,10.4,30.66,North,0,8.4,8.4,33,0.00,CLR,SCT,0.00,WeatherDisplay:10.37,2013-01-15 19:38:00,
2013-01-15 14:41:00,36.9,10.4,30.66,North,0,8.4,0.0,33,0.00,CLR,SCT,0.00,WeatherDisplay:10.37,2013-01-15 19:41:00,
2013-01-15 14:42:00,36.9,10.4,30.66,North,0,8.4,0.0,33,0.00,CLR,SCT,0.00,WeatherDisplay:10.37,2013-01-15 19:42:00,
2013-01-15 14:43:00,36.9,10.4,30.66,North,0,8.4,0.0,33,0.00,CLR,SCT,0.00,WeatherDisplay:10.37,2013-01-15 19:43:00,
2013-01-15 14:46:00,36.9,10.4,30.66,North,0,8.4,0.0,33,0.00,CLR,SCT,0.00,WeatherDisplay:10.37,2013-01-15 19:46:00,
2013-01-15 14:48:00,36.9,10.4,30.66,North,0,8.4,0.0,33,0.00,CLR,SCT,0.00,WeatherDisplay:10.37,2013-01-15 19:48:00,
2013-01-15 14:49:00,37.0,10.6,30.66,North,0,8.4,0.0,33,0.00,CLR,SCT,0.00,WeatherDisplay:10.37,2013-01-15 19:49:00,
2013-01-15 14:51:00,37.0,10.6,30.66,North,0,8.4,0.0,33,0.00,CLR,SCT,0.00,WeatherDisplay:10.37,2013-01-15 19:51:00,
2013-01-15 14:52:00,37.0,10.6,30.66,North,0,8.4,0.0,33,0.00,CLR,SCT,0.00,WeatherDisplay:10.37,2013-01-15 19:52:00,
2013-01-15 14:53:00,37.0,10.6,30.66,North,0,8.4,0.0,33,0.00,CLR,SCT,0.00,WeatherDisplay:10.37,2013-01-15 19:53:00,
2013-01-15 14:57:00,37.2,10.7,30.66,North,0,8.4,0.0,33,0.00,CLR,SCT,0.00,WeatherDisplay:10.37,2013-01-15 19:57:00,
2013-01-15 14:59:00,37.2,10.7,30.66,North,0,8.4,0.0,33,0.00,CLR,SCT,0.00,WeatherDisplay:10.37,2013-01-15 19:59:00,
2013-01-15 15:03:00,37.6,11.0,30.66,North,0,8.1,0.0,33,0.00,CLR,SCT,0.00,WeatherDisplay:10.37,2013-01-15 20:03:00,
2013-01-15 15:04:00,37.6,11.0,30.66,North,0,0.0,0.0,33,0.00,CLR,SCT,0.00,WeatherDisplay:10.37,2013-01-15 20:04:00,
2013-01-15 15:06:00,37.6,11.0,30.66,North,0,0.0,0.0,33,0.00,CLR,SCT,0.00,WeatherDisplay:10.37,2013-01-15 20:06:00,
2013-01-15 15:10:00,37.6,11.0,30.66,North,0,0.0,0.0,33,0.00,CLR,SCT,0.00,WeatherDisplay:10.37,2013-01-15 20:10:00,
2013-01-15 15:12:00,37.6,11.0,29.03,North,0,0.0,0.0,33,0.00,CLR,SCT,0.00,WeatherDisplay:10.37,2013-01-15 20:12:00,
2013-01-15 15:15:00,37.6,11.0,29.02,North,0,0.0,0.0,33,0.00,CLR,SCT,0.00,WeatherDisplay:10.37,2013-01-15 20:15:00,
2013-01-15 15:16:00,37.6,11.0,29.02,North,0,0.0,0.0,33,0.00,CLR,SCT,0.00,WeatherDisplay:10.37,2013-01-15 20:16:00,
2013-01-15 15:17:00,37.6,9.6,29.02,North,0,0.0,0.0,31,0.00,CLR,SCT,0.00,WeatherDisplay:10.37,2013-01-15 20:17:00,
2013-01-15 15:20:00,37.6,11.0,29.01,North,0,0.0,0.0,33,0.00,CLR,SCT,0.00,WeatherDisplay:10.37,2013-01-15 20:20:00,
2013-01-15 15:22:00,37.6,11.0,29.01,North,0,0.0,0.0,33,0.00,CLR,SCT,0.00,WeatherDisplay:10.37,2013-01-15 20:22:00,
2013-01-15 15:27:00,37.6,11.0,29.01,North,0,0.0,0.0,33,0.00,CLR,SCT,0.00,WeatherDisplay:10.37,2013-01-15 20:27:00,
2013-01-15 15:28:00,37.6,9.6,29.01,North,0,0.0,0.0,31,0.00,CLR,SCT,0.00,WeatherDisplay:10.37,2013-01-15 20:28:00,
2013-01-15 15:32:00,37.6,10.3,29.01,North,0,0.0,0.0,32,0.00,CLR,SCT,0.00,WeatherDisplay:10.37,2013-01-15 20:32:00,
2013-01-15 15:33:00,37.6,11.0,29.01,North,0,0.0,0.0,33,0.00,CLR,SCT,0.00,WeatherDisplay:10.37,2013-01-15 20:33:00,
2013-01-15 15:35:00,37.6,11.0,29.01,North,0,0.0,0.0,33,0.00,CLR,SCT,0.00,WeatherDisplay:10.37,2013-01-15 20:35:00,
2013-01-15 15:38:00,37.6,11.0,29.00,North,0,0.0,0.0,33,0.00,CLR,SCT,0.00,WeatherDisplay:10.37,2013-01-15 20:38:00,
2013-01-15 15:41:00,37.6,11.7,29.05,North,0,0.0,0.0,34,0.00,CLR,SCT,0.00,WeatherDisplay:10.37,2013-01-15 20:41:00,
2013-01-15 15:42:00,37.6,11.7,29.05,North,0,0.0,0.0,34,0.00,CLR,SCT,0.00,WeatherDisplay:10.37,2013-01-15 20:42:00,
2013-01-15 15:43:00,37.6,11.7,29.05,North,0,0.0,0.0,34,0.00,CLR,SCT,0.00,WeatherDisplay:10.37,2013-01-15 20:43:00,
2013-01-15 15:45:00,37.6,11.7,29.05,North,0,0.0,0.0,34,0.00,CLR,SCT,0.00,WeatherDisplay:10.37,2013-01-15 20:45:00,
2013-01-15 15:48:00,37.6,11.7,29.04,North,0,0.0,0.0,34,0.00,CLR,SCT,0.00,WeatherDisplay:10.37,2013-01-15 20:48:00,
2013-01-15 15:50:00,37.6,11.7,29.04,North,0,0.0,0.0,34,0.00,CLR,SCT,0.00,WeatherDisplay:10.37,2013-01-15 20:50:00,
2013-01-15 15:52:00,37.6,11.7,29.03,North,0,0.0,0.0,34,0.00,CLR,SCT,0.00,WeatherDisplay:10.37,2013-01-15 20:52:00,
2013-01-15 15:54:00,37.6,11.7,29.02,North,0,0.0,0.0,34,0.00,CLR,SCT,0.00,WeatherDisplay:10.37,2013-01-15 20:54:00,
2013-01-15 15:56:00,37.6,11.7,29.01,North,0,0.0,0.0,34,0.00,CLR,SCT,0.00,WeatherDisplay:10.37,2013-01-15 20:56:00,
2013-01-15 15:57:00,37.6,11.7,29.02,North,0,0.0,0.0,34,0.00,CLR,SCT,0.00,WeatherDisplay:10.37,2013-01-15 20:57:00,
2013-01-15 15:58:00,37.6,11.7,29.02,North,0,0.0,0.0,34,0.00,CLR,SCT,0.00,WeatherDisplay:10.37,2013-01-15 20:58:00,
2013-01-15 16:00:00,37.6,11.7,29.08,North,0,0.0,0.0,34,0.00,CLR,SCT,0.00,WeatherDisplay:10.37,2013-01-15 21:00:00,
2013-01-15 16:02:00,37.6,11.7,29.07,North,0,0.0,0.0,34,0.00,CLR,SCT,0.00,WeatherDisplay:10.37,2013-01-15 21:02:00,
2013-01-15 16:04:00,37.6,11.7,29.08,North,0,0.0,0.0,34,0.00,CLR,SCT,0.00,WeatherDisplay:10.37,2013-01-15 21:04:00,
2013-01-15 16:07:00,37.6,11.7,29.08,North,0,0.0,0.0,34,0.00,CLR,SCT,0.00,WeatherDisplay:10.37,2013-01-15 21:07:00,
2013-01-15 16:09:00,37.6,11.7,29.07,North,0,0.0,0.0,34,0.00,CLR,SCT,0.00,WeatherDisplay:10.37,2013-01-15 21:09:00,
2013-01-15 16:10:00,37.6,11.7,29.07,North,0,0.0,0.0,34,0.00,CLR,SCT,0.00,WeatherDisplay:10.37,2013-01-15 21:10:00,
2013-01-15 16:12:00,37.6,11.0,29.07,North,0,0.0,0.0,33,0.00,CLR,SCT,0.00,WeatherDisplay:10.37,2013-01-15 21:12:00,
2013-01-15 16:15:00,37.6,11.7,29.07,North,0,0.0,0.0,34,0.00,CLR,SCT,0.00,WeatherDisplay:10.37,2013-01-15 21:15:00,
2013-01-15 16:16:00,37.6,11.7,29.07,North,0,0.0,0.0,34,0.00,CLR,SCT,0.00,WeatherDisplay:10.37,2013-01-15 21:16:00,
2013-01-15 16:17:00,37.6,11.7,29.07,North,0,0.0,0.0,34,0.00,CLR,SCT,0.00,WeatherDisplay:10.37,2013-01-15 21:17:00,
2013-01-15 16:18:00,37.6,11.7,29.07,North,0,0.0,0.0,34,0.00,CLR,SCT,0.00,WeatherDisplay:10.37,2013-01-15 21:18:00,
2013-01-15 16:21:00,37.6,11.7,29.06,North,0,0.0,0.0,34,0.00,CLR,SCT,0.00,WeatherDisplay:10.37,2013-01-15 21:21:00,
2013-01-15 16:23:00,37.6,11.7,29.05,North,0,0.0,0.0,34,0.00,CLR,SCT,0.00,WeatherDisplay:10.37,2013-01-15 21:23:00,
2013-01-15 16:24:00,37.6,11.7,29.05,North,0,0.0,0.0,34,0.00,CLR,SCT,0.00,WeatherDisplay:10.37,2013-01-15 21:24:00,
2013-01-15 16:26:00,37.6,11.7,29.05,North,0,0.0,0.0,34,0.00,CLR,SCT,0.00,WeatherDisplay:10.37,2013-01-15 21:26:00,
2013-01-15 16:27:00,37.6,11.7,29.05,North,0,0.0,0.0,34,0.00,CLR,SCT,0.00,WeatherDisplay:10.37,2013-01-15 21:27:00,
2013-01-15 16:28:00,37.6,11.7,29.06,North,0,0.0,0.0,34,0.00,CLR,SCT,0.00,WeatherDisplay:10.37,2013-01-15 21:28:00,
2013-01-15 16:31:00,37.6,11.7,29.06,North,0,0.0,0.0,34,0.00,CLR,SCT,0.00,WeatherDisplay:10.37,2013-01-15 21:31:00,
2013-01-15 16:33:00,37.6,11.7,29.06,North,0,0.0,0.0,34,0.00,CLR,SCT,0.00,WeatherDisplay:10.37,2013-01-15 21:33:00,
2013-01-15 16:34:00,37.6,11.7,29.05,North,0,0.0,0.0,34,0.00,CLR,SCT,0.00,WeatherDisplay:10.37,2013-01-15 21:34:00,
2013-01-15 16:38:00,37.6,11.7,29.05,North,0,0.0,0.0,34,0.00,CLR,SCT,0.00,WeatherDisplay:10.37,2013-01-15 21:38:00,
2013-01-15 16:39:00,37.6,11.7,29.06,North,0,0.0,0.0,34,0.00,CLR,SCT,0.00,WeatherDisplay:10.37,2013-01-15 21:39:00,
2013-01-15 16:40:00,37.6,11.7,29.06,North,0,0.0,0.0,34,0.00,CLR,SCT,0.00,WeatherDisplay:10.37,2013-01-15 21:40:00,
2013-01-15 16:44:00,37.6,11.0,29.05,North,0,0.0,0.0,33,0.00,CLR,SCT,0.00,WeatherDisplay:10.37,2013-01-15 21:44:00,
2013-01-15 16:45:00,37.6,11.7,29.05,North,0,0.0,0.0,34,0.00,CLR,SCT,0.00,WeatherDisplay:10.37,2013-01-15 21:45:00,
2013-01-15 16:47:00,37.6,11.7,29.05,North,0,0.0,0.0,34,0.00,CLR,SCT,0.00,WeatherDisplay:10.37,2013-01-15 21:47:00,
2013-01-15 16:50:00,37.6,11.7,29.04,North,0,0.0,0.0,34,0.00,CLR,SCT,0.00,WeatherDisplay:10.37,2013-01-15 21:50:00,
2013-01-15 16:52:00,35.4,9.1,29.04,North,0,8.4,8.4,33,0.00,CLR,SCT,0.00,WeatherDisplay:10.37,2013-01-15 21:52:00,
2013-01-15 16:55:00,35.4,9.8,29.09,NNW,337,8.4,8.4,34,0.00,CLR,SCT,0.00,WeatherDisplay:10.37,2013-01-15 21:55:00,
2013-01-15 16:57:00,35.2,9.6,29.09,North,0,8.4,8.4,34,0.00,CLR,SCT,0.00,WeatherDisplay:10.37,2013-01-15 21:57:00,
2013-01-15 16:58:00,35.2,9.6,29.09,North,0,8.4,8.4,34,0.00,CLR,SCT,0.00,WeatherDisplay:10.37,2013-01-15 21:58:00,
2013-01-15 17:01:00,35.2,9.6,29.08,NNE,22,8.4,8.4,34,0.00,CLR,SCT,0.00,WeatherDisplay:10.37,2013-01-15 22:01:00,
2013-01-15 17:04:00,35.2,9.6,29.08,North,0,8.1,8.1,34,0.00,CLR,SCT,0.00,WeatherDisplay:10.37,2013-01-15 22:04:00,
2013-01-15 17:09:00,34.9,9.3,29.08,North,0,7.9,7.9,34,0.00,CLR,SCT,0.00,WeatherDisplay:10.37,2013-01-15 22:09:00,
2013-01-15 17:12:00,34.9,9.3,29.06,NNE,22,8.1,8.1,34,0.00,CLR,SCT,0.00,WeatherDisplay:10.37,2013-01-15 22:12:00,
2013-01-15 17:14:00,34.9,9.3,29.06,North,0,11.5,11.5,34,0.00,CLR,SCT,0.00,WeatherDisplay:10.37,2013-01-15 22:14:00,
2013-01-15 17:16:00,34.7,9.1,29.06,NNE,22,11.5,11.5,34,0.00,CLR,SCT,0.00,WeatherDisplay:10.37,2013-01-15 22:16:00,
2013-01-15 17:18:00,34.7,8.5,29.06,NNE,22,11.5,11.5,33,0.00,CLR,SCT,0.00,WeatherDisplay:10.37,2013-01-15 22:18:00,
2013-01-15 17:20:00,34.9,9.3,29.06,North,0,11.5,11.5,34,0.00,CLR,SCT,0.00,WeatherDisplay:10.37,2013-01-15 22:20:00,
2013-01-15 17:21:00,34.9,9.3,29.04,North,0,11.5,11.5,34,0.00,CLR,SCT,0.00,WeatherDisplay:10.37,2013-01-15 22:21:00,
2013-01-15 17:25:00,34.7,9.1,29.09,NNE,22,11.5,11.5,34,0.00,CLR,SCT,0.00,WeatherDisplay:10.37,2013-01-15 22:25:00,
2013-01-15 17:26:00,34.7,9.1,29.09,NNE,22,11.5,11.5,34,0.00,CLR,SCT,0.00,WeatherDisplay:10.37,2013-01-15 22:26:00,
2013-01-15 17:30:00,34.7,9.1,29.09,NE,45,11.5,11.5,34,0.00,CLR,SCT,0.00,WeatherDisplay:10.37,2013-01-15 22:30:00,
2013-01-15 17:31:00,34.7,9.1,29.08,NE,45,11.5,11.5,34,0.00,CLR,SCT,0.00,WeatherDisplay:10.37,2013-01-15 22:31:00,
2013-01-15 17:34:00,34.5,9.6,29.07,NE,45,11.5,11.5,35,0.00,CLR,SCT,0.00,WeatherDisplay:10.37,2013-01-15 22:34:00,
2013-01-15 17:35:00,34.5,9.6,29.07,NE,45,11.5,11.5,35,0.00,CLR,SCT,0.00,WeatherDisplay:10.37,2013-01-15 22:35:00,
2013-01-15 17:39:00,34.7,9.8,29.07,NE,45,11.5,11.5,35,0.00,CLR,SCT,0.00,WeatherDisplay:10.37,2013-01-15 22:39:00,
2013-01-15 17:40:00,34.7,9.8,29.07,NE,45,11.5,11.5,35,0.00,CLR,SCT,0.00,WeatherDisplay:10.37,2013-01-15 22:40:00,
2013-01-15 17:41:00,34.7,9.8,29.07,NE,45,11.5,11.5,35,0.00,CLR,SCT,0.00,WeatherDisplay:10.37,2013-01-15 22:41:00,
2013-01-15 17:45:00,34.5,9.6,29.06,NE,45,11.5,11.5,35,0.00,CLR,SCT,0.00,WeatherDisplay:10.37,2013-01-15 22:45:00,
2013-01-15 17:46:00,34.5,9.6,29.06,NE,45,11.5,11.5,35,0.00,CLR,SCT,0.00,WeatherDisplay:10.37,2013-01-15 22:46:00,
2013-01-15 17:51:00,34.3,9.5,29.05,NE,45,11.5,11.5,35,0.00,CLR,SCT,0.00,WeatherDisplay:10.37,2013-01-15 22:51:00,
2013-01-15 17:52:00,34.3,8.8,29.05,NE,45,11.5,11.5,34,0.00,CLR,SCT,0.00,WeatherDisplay:10.37,2013-01-15 22:52:00,
2013-01-15 17:53:00,34.3,8.8,29.10,NE,45,11.5,11.5,34,0.00,CLR,SCT,0.00,WeatherDisplay:10.37,2013-01-15 22:53:00,
2013-01-15 17:56:00,34.3,8.8,29.10,East,90,11.5,11.5,34,0.00,CLR,SCT,0.00,WeatherDisplay:10.37,2013-01-15 22:56:00,
2013-01-15 17:57:00,34.3,8.8,29.09,East,90,11.5,11.5,34,0.00,CLR,SCT,0.00,WeatherDisplay:10.37,2013-01-15 22:57:00,
2013-01-15 18:01:00,34.2,9.3,29.09,East,90,11.5,11.5,35,0.00,CLR,SCT,0.00,WeatherDisplay:10.37,2013-01-15 23:01:00,
2013-01-15 18:02:00,34.2,9.3,29.08,NE,45,11.5,11.5,35,0.00,CLR,SCT,0.00,WeatherDisplay:10.37,2013-01-15 23:02:00,
2013-01-15 18:05:00,34.2,9.3,29.08,East,90,11.5,11.5,35,0.00,CLR,SCT,0.00,WeatherDisplay:10.37,2013-01-15 23:05:00,
2013-01-15 18:07:00,34.0,9.2,29.07,East,90,2.6,2.6,35,0.00,CLR,SCT,0.00,WeatherDisplay:10.37,2013-01-15 23:07:00,
2013-01-15 18:09:00,34.0,8.5,29.06,ENE,67,2.6,2.6,34,0.00,CLR,SCT,0.00,WeatherDisplay:10.37,2013-01-15 23:09:00,
2013-01-15 18:11:00,34.0,9.2,29.06,East,90,2.6,2.6,35,0.00,CLR,SCT,0.00,WeatherDisplay:10.37,2013-01-15 23:11:00,
2013-01-15 18:12:00,34.0,9.2,29.06,East,90,2.6,2.6,35,0.00,CLR,SCT,0.00,WeatherDisplay:10.37,2013-01-15 23:12:00,
2013-01-15 18:15:00,33.8,9.0,29.06,East,90,2.6,0.0,35,0.00,CLR,SCT,0.00,WeatherDisplay:10.37,2013-01-15 23:15:00,
2013-01-15 18:17:00,33.6,8.8,29.06,East,90,2.6,0.0,35,0.00,CLR,SCT,0.00,WeatherDisplay:10.37,2013-01-15 23:17:00,
2013-01-15 18:20:00,33.6,8.8,29.06,ESE,112,2.6,0.0,35,0.00,CLR,SCT,0.00,WeatherDisplay:10.37,2013-01-15 23:20:00,
2013-01-15 18:21:00,33.6,8.8,29.06,ESE,112,2.6,0.0,35,0.00,CLR,SCT,0.00,WeatherDisplay:10.37,2013-01-15 23:21:00,
2013-01-15 18:23:00,33.6,8.8,29.05,ESE,112,2.6,0.0,35,0.00,CLR,SCT,0.00,WeatherDisplay:10.37,2013-01-15 23:23:00,
2013-01-15 18:25:00,33.6,8.8,29.12,ESE,112,2.6,0.0,35,0.00,CLR,SCT,0.00,WeatherDisplay:10.37,2013-01-15 23:25:00,
2013-01-15 18:26:00,33.6,8.8,29.10,ESE,112,2.6,0.0,35,0.00,CLR,SCT,0.00,WeatherDisplay:10.37,2013-01-15 23:26:00,
2013-01-15 18:27:00,33.4,8.7,29.10,ESE,112,2.6,0.0,35,0.00,CLR,SCT,0.00,WeatherDisplay:10.37,2013-01-15 23:27:00,
2013-01-15 18:28:00,33.4,8.7,29.10,ESE,112,2.6,0.0,35,0.00,CLR,SCT,0.00,WeatherDisplay:10.37,2013-01-15 23:28:00,
2013-01-15 18:32:00,33.4,8.7,29.10,SE,135,2.6,0.0,35,0.00,CLR,SCT,0.00,WeatherDisplay:10.37,2013-01-15 23:32:00,
2013-01-15 18:33:00,33.4,8.7,29.10,SE,135,2.6,0.0,35,0.00,CLR,SCT,0.00,WeatherDisplay:10.37,2013-01-15 23:33:00,
2013-01-15 18:36:00,33.4,8.7,29.09,SE,135,2.6,0.0,35,0.00,CLR,SCT,0.00,WeatherDisplay:10.37,2013-01-15 23:36:00,
2013-01-15 18:38:00,33.3,8.5,29.09,SSE,157,2.6,0.0,35,0.00,CLR,SCT,0.00,WeatherDisplay:10.37,2013-01-15 23:38:00,
2013-01-15 18:39:00,33.3,8.5,29.08,SSE,157,2.6,0.0,35,0.00,CLR,SCT,0.00,WeatherDisplay:10.37,2013-01-15 23:39:00,
2013-01-15 18:41:00,33.4,8.7,29.08,NE,45,2.6,0.0,35,0.00,CLR,SCT,0.00,WeatherDisplay:10.37,2013-01-15 23:41:00,
2013-01-15 18:42:00,33.4,8.7,29.08,NE,45,2.6,0.0,35,0.00,CLR,SCT,0.00,WeatherDisplay:10.37,2013-01-15 23:42:00,
2013-01-15 18:43:00,33.4,8.7,29.08,NE,45,2.6,0.0,35,0.00,CLR,SCT,0.00,WeatherDisplay:10.37,2013-01-15 23:43:00,
2013-01-15 18:45:00,33.3,8.5,29.08,NE,45,2.6,0.0,35,0.00,CLR,SCT,0.00,WeatherDisplay:10.37,2013-01-15 23:45:00,
2013-01-15 18:49:00,33.3,8.5,29.07,NNE,22,2.6,2.6,35,0.00,CLR,SCT,0.00,WeatherDisplay:10.37,2013-01-15 23:49:00,
2013-01-15 18:50:00,33.3,8.5,29.07,NNE,22,3.8,3.8,35,0.00,CLR,SCT,0.00,WeatherDisplay:10.37,2013-01-15 23:50:00,
2013-01-15 18:51:00,33.1,8.4,29.07,North,0,3.8,3.8,35,0.00,CLR,SCT,0.00,WeatherDisplay:10.37,2013-01-15 23:51:00,
2013-01-15 18:54:00,33.1,8.4,29.07,North,0,4.7,4.7,35,0.00,CLR,SCT,0.00,WeatherDisplay:10.37,2013-01-15 23:54:00,
2013-01-15 18:55:00,33.1,8.4,29.06,North,0,4.7,4.7,35,0.00,CLR,SCT,0.00,WeatherDisplay:10.37,2013-01-15 23:55:00,
2013-01-15 18:56:00,33.1,8.4,29.05,North,0,4.7,4.7,35,0.00,CLR,SCT,0.00,WeatherDisplay:10.37,2013-01-15 23:56:00,
2013-01-15 19:00:00,32.9,8.2,29.05,North,0,4.7,4.7,35,0.00,CLR,SCT,0.00,WeatherDisplay:10.37,2013-01-16 00:00:00,
2013-01-15 19:01:00,32.9,8.2,29.05,North,0,4.7,4.7,35,0.00,CLR,SCT,0.00,WeatherDisplay:10.37,2013-01-16 00:01:00,
2013-01-15 19:02:00,32.9,8.2,29.06,North,0,4.7,4.7,35,0.00,CLR,SCT,0.00,WeatherDisplay:10.37,2013-01-16 00:02:00,
2013-01-15 19:06:00,32.7,8.0,29.05,North,0,4.6,4.6,35,0.00,CLR,SCT,0.00,WeatherDisplay:10.37,2013-01-16 00:06:00,
2013-01-15 19:07:00,32.7,8.0,29.05,NNE,22,4.6,4.6,35,0.00,CLR,SCT,0.00,WeatherDisplay:10.37,2013-01-16 00:07:00,
2013-01-15 19:08:00,32.7,8.0,29.11,NNE,22,4.6,4.6,35,0.00,CLR,SCT,0.00,WeatherDisplay:10.37,2013-01-16 00:08:00,
2013-01-15 19:12:00,32.5,7.9,29.11,NE,45,4.6,4.6,35,0.00,CLR,SCT,0.00,WeatherDisplay:10.37,2013-01-16 00:12:00,
2013-01-15 19:13:00,32.5,7.9,29.11,NE,45,4.6,4.6,35,0.00,CLR,SCT,0.00,WeatherDisplay:10.37,2013-01-16 00:13:00,
2013-01-15 19:16:00,32.5,7.9,29.09,North,0,4.6,4.6,35,0.00,CLR,SCT,0.00,WeatherDisplay:10.37,2013-01-16 00:16:00,
2013-01-15 19:17:00,32.5,7.9,29.09,NNE,22,4.6,4.6,35,0.00,CLR,SCT,0.00,WeatherDisplay:10.37,2013-01-16 00:17:00,
2013-01-15 19:18:00,32.5,7.9,29.09,NNE,22,4.6,4.6,35,0.00,CLR,SCT,0.00,WeatherDisplay:10.37,2013-01-16 00:18:00,
2013-01-15 19:22:00,32.5,7.9,29.10,NE,45,4.6,4.6,35,0.00,CLR,SCT,0.00,WeatherDisplay:10.37,2013-01-16 00:22:00,
2013-01-15 19:23:00,32.5,7.9,29.10,NE,45,4.6,4.6,35,0.00,CLR,SCT,0.00,WeatherDisplay:10.37,2013-01-16 00:23:00,
2013-01-15 19:24:00,32.5,7.9,29.08,NE,45,4.6,4.6,35,0.00,CLR,SCT,0.00,WeatherDisplay:10.37,2013-01-16 00:24:00,
2013-01-15 19:27:00,32.4,7.7,29.09,NE,45,4.6,4.6,35,0.00,CLR,SCT,0.00,WeatherDisplay:10.37,2013-01-16 00:27:00,
2013-01-15 19:29:00,32.4,7.7,29.08,NE,45,4.6,4.6,35,0.00,CLR,SCT,0.00,WeatherDisplay:10.37,2013-01-16 00:29:00,
2013-01-15 19:30:00,32.4,7.7,29.08,ENE,67,4.6,4.6,35,0.00,CLR,SCT,0.00,WeatherDisplay:10.37,2013-01-16 00:30:00,
2013-01-15 19:31:00,32.4,7.7,29.08,ENE,67,4.6,4.6,35,0.00,CLR,SCT,0.00,WeatherDisplay:10.37,2013-01-16 00:31:00,
2013-01-15 19:34:00,32.4,7.7,29.07,NE,45,4.6,4.6,35,0.00,CLR,SCT,0.00,WeatherDisplay:10.37,2013-01-16 00:34:00,
2013-01-15 19:36:00,32.4,7.7,29.08,NE,45,4.6,4.6,35,0.00,CLR,SCT,0.00,WeatherDisplay:10.37,2013-01-16 00:36:00,
2013-01-15 19:37:00,32.4,7.7,29.08,East,90,4.6,4.6,35,0.00,CLR,SCT,0.00,WeatherDisplay:10.37,2013-01-16 00:37:00,
2013-01-15 19:40:00,32.2,7.6,29.07,East,90,4.6,0.0,35,0.00,CLR,SCT,0.00,WeatherDisplay:10.37,2013-01-16 00:40:00,
2013-01-15 19:41:00,32.2,7.6,29.08,East,90,4.6,0.0,35,0.00,CLR,SCT,0.00,WeatherDisplay:10.37,2013-01-16 00:41:00,
2013-01-15 19:44:00,32.2,7.6,29.07,NNE,22,4.6,4.6,35,0.00,CLR,SCT,0.00,WeatherDisplay:10.37,2013-01-16 00:44:00,
2013-01-15 19:45:00,32.2,7.6,29.07,NNE,22,4.6,4.6,35,0.00,CLR,SCT,0.00,WeatherDisplay:10.37,2013-01-16 00:45:00,
2013-01-15 19:46:00,32.2,7.6,29.07,NNE,22,4.6,0.0,35,0.00,CLR,SCT,0.00,WeatherDisplay:10.37,2013-01-16 00:46:00,
2013-01-15 19:47:00,32.2,7.6,29.07,NE,45,4.6,0.0,35,0.00,CLR,SCT,0.00,WeatherDisplay:10.37,2013-01-16 00:47:00,
2013-01-15 19:50:00,32.2,7.6,29.07,North,0,4.6,0.0,35,0.00,CLR,SCT,0.00,WeatherDisplay:10.37,2013-01-16 00:50:00,
2013-01-15 19:51:00,32.2,7.6,29.07,North,0,4.6,0.0,35,0.00,CLR,SCT,0.00,WeatherDisplay:10.37,2013-01-16 00:51:00,
2013-01-15 19:52:00,32.2,7.6,29.06,North,0,4.6,0.0,35,0.00,CLR,SCT,0.00,WeatherDisplay:10.37,2013-01-16 00:52:00,
2013-01-15 19:56:00,32.2,7.6,29.05,NNE,22,4.6,0.0,35,0.00,CLR,SCT,0.00,WeatherDisplay:10.37,2013-01-16 00:56:00,
2013-01-15 19:57:00,32.2,7.6,29.05,NW,315,4.6,0.0,35,0.00,CLR,SCT,0.00,WeatherDisplay:10.37,2013-01-16 00:57:00,
2013-01-15 19:58:00,32.2,7.6,29.05,NW,315,4.6,0.0,35,0.00,CLR,SCT,0.00,WeatherDisplay:10.37,2013-01-16 00:58:00,
2013-01-15 20:01:00,32.2,7.6,29.05,NW,315,4.6,0.0,35,0.00,CLR,SCT,0.00,WeatherDisplay:10.37,2013-01-16 01:01:00,
2013-01-15 20:02:00,32.2,7.6,29.05,NW,315,4.6,0.0,35,0.00,CLR,SCT,0.00,WeatherDisplay:10.37,2013-01-16 01:02:00,
2013-01-15 20:06:00,32.2,7.6,29.05,North,0,0.0,0.0,35,0.00,CLR,SCT,0.00,WeatherDisplay:10.37,2013-01-16 01:06:00,
2013-01-15 20:07:00,32.0,7.4,29.05,North,0,1.3,1.3,35,0.00,CLR,SCT,0.00,WeatherDisplay:10.37,2013-01-16 01:07:00,
2013-01-15 20:08:00,32.0,7.4,29.05,North,0,1.3,1.3,35,0.00,CLR,SCT,0.00,WeatherDisplay:10.37,2013-01-16 01:08:00,
2013-01-15 20:09:00,32.0,7.4,29.05,North,0,1.3,1.3,35,0.00,CLR,SCT,0.00,WeatherDisplay:10.37,2013-01-16 01:09:00,
2013-01-15 20:12:00,32.2,7.6,29.05,North,0,4.6,4.6,35,0.00,CLR,SCT,0.00,WeatherDisplay:10.37,2013-01-16 01:12:00,
2013-01-15 20:13:00,32.2,7.6,29.05,NNW,337,4.6,4.6,35,0.00,CLR,SCT,0.00,WeatherDisplay:10.37,2013-01-16 01:13:00,
2013-01-15 20:14:00,32.2,7.6,29.11,NNW,337,4.6,4.6,35,0.00,CLR,SCT,0.00,WeatherDisplay:10.37,2013-01-16 01:14:00,
2013-01-15 20:17:00,32.2,7.6,29.10,NNW,337,4.6,4.6,35,0.00,CLR,SCT,0.00,WeatherDisplay:10.37,2013-01-16 01:17:00,
2013-01-15 20:20:00,32.2,7.6,29.10,North,0,4.6,4.6,35,0.00,CLR,SCT,0.00,WeatherDisplay:10.37,2013-01-16 01:20:00,
2013-01-15 20:22:00,32.2,7.6,29.10,North,0,4.6,4.6,35,0.00,CLR,SCT,0.00,WeatherDisplay:10.37,2013-01-16 01:22:00,
2013-01-15 20:25:00,32.2,7.6,29.10,NW,315,4.6,4.6,35,0.00,CLR,SCT,0.00,WeatherDisplay:10.37,2013-01-16 01:25:00,
2013-01-15 20:29:00,32.0,7.4,29.10,NW,315,4.7,4.7,35,0.00,CLR,SCT,0.00,WeatherDisplay:10.37,2013-01-16 01:29:00,
2013-01-15 20:30:00,32.0,7.4,29.10,NW,315,4.7,4.7,35,0.00,CLR,SCT,0.00,WeatherDisplay:10.37,2013-01-16 01:30:00,
2013-01-15 20:31:00,32.0,7.4,29.10,North,0,4.7,4.7,35,0.00,CLR,SCT,0.00,WeatherDisplay:10.37,2013-01-16 01:31:00,
2013-01-15 20:34:00,32.0,7.4,29.08,North,0,4.9,4.9,35,0.00,CLR,SCT,0.00,WeatherDisplay:10.37,2013-01-16 01:34:00,
2013-01-15 20:36:00,32.0,7.4,29.10,NW,315,5.8,5.8,35,0.00,CLR,SCT,0.00,WeatherDisplay:10.37,2013-01-16 01:36:00,
2013-01-15 20:37:00,32.0,7.4,29.08,NW,315,5.8,5.8,35,0.00,CLR,SCT,0.00,WeatherDisplay:10.37,2013-01-16 01:37:00,
2013-01-15 20:40:00,32.0,7.4,29.08,NNW,337,5.8,5.8,35,0.00,CLR,SCT,0.00,WeatherDisplay:10.37,2013-01-16 01:40:00,
2013-01-15 20:42:00,32.0,7.4,29.08,NNW,337,5.8,5.8,35,0.00,CLR,SCT,0.00,WeatherDisplay:10.37,2013-01-16 01:42:00,
2013-01-15 20:43:00,32.0,7.4,29.08,NNW,337,5.8,5.8,35,0.00,CLR,SCT,0.00,WeatherDisplay:10.37,2013-01-16 01:43:00,
2013-01-15 20:44:00,32.0,7.4,29.08,NNW,337,5.8,5.8,35,0.00,CLR,SCT,0.00,WeatherDisplay:10.37,2013-01-16 01:44:00,
2013-01-15 20:47:00,31.6,7.1,29.08,North,0,5.9,5.9,35,0.00,CLR,SCT,0.00,WeatherDisplay:10.37,2013-01-16 01:47:00,
2013-01-15 20:51:00,31.6,7.1,29.08,NNW,337,6.3,6.3,35,0.00,CLR,SCT,0.00,WeatherDisplay:10.37,2013-01-16 01:51:00,
2013-01-15 20:52:00,31.6,7.1,29.08,NNW,337,6.3,6.3,35,0.00,CLR,SCT,0.00,WeatherDisplay:10.37,2013-01-16 01:52:00,
2013-01-15 20:53:00,31.6,7.1,29.07,NNW,337,6.3,6.3,35,0.00,CLR,SCT,0.00,WeatherDisplay:10.37,2013-01-16 01:53:00,
2013-01-15 20:55:00,31.5,6.9,29.08,North,0,6.9,6.9,35,0.00,CLR,SCT,0.00,WeatherDisplay:10.37,2013-01-16 01:55:00,
2013-01-15 20:57:00,31.5,6.9,29.07,North,0,6.9,6.9,35,0.00,CLR,SCT,0.00,WeatherDisplay:10.37,2013-01-16 01:57:00,
2013-01-15 20:58:00,31.5,6.9,29.06,North,0,6.9,6.9,35,0.00,CLR,SCT,0.00,WeatherDisplay:10.37,2013-01-16 01:58:00,
2013-01-15 21:01:00,31.5,6.9,29.06,North,0,6.9,6.9,35,0.00,CLR,SCT,0.00,WeatherDisplay:10.37,2013-01-16 02:01:00,
2013-01-15 21:03:00,31.3,6.8,29.07,North,0,6.9,6.9,35,0.00,CLR,SCT,0.00,WeatherDisplay:10.37,2013-01-16 02:03:00,
2013-01-15 21:04:00,31.3,6.8,29.07,NNW,337,6.9,6.9,35,0.00,CLR,SCT,0.00,WeatherDisplay:10.37,2013-01-16 02:04:00,
2013-01-15 21:06:00,31.1,6.6,29.07,NE,45,5.8,5.8,35,0.00,CLR,SCT,0.00,WeatherDisplay:10.37,2013-01-16 02:06:00,
2013-01-15 21:08:00,31.1,6.6,29.06,NE,45,5.8,5.8,35,0.00,CLR,SCT,0.00,WeatherDisplay:10.37,2013-01-16 02:08:00,
2013-01-15 21:09:00,31.1,6.6,29.06,NE,45,5.8,5.8,35,0.00,CLR,SCT,0.00,WeatherDisplay:10.37,2013-01-16 02:09:00,
2013-01-15 21:11:00,30.7,6.3,29.06,NE,45,5.8,5.8,35,0.00,CLR,SCT,0.00,WeatherDisplay:10.37,2013-01-16 02:11:00,
2013-01-15 21:14:00,30.7,6.3,29.05,North,0,6.1,6.1,35,0.00,CLR,SCT,0.00,WeatherDisplay:10.37,2013-01-16 02:14:00,
2013-01-15 21:15:00,30.6,6.1,29.05,North,0,6.1,6.1,35,0.00,CLR,SCT,0.00,WeatherDisplay:10.37,2013-01-16 02:15:00,
2013-01-15 21:16:00,30.6,6.1,29.05,North,0,6.1,6.1,35,0.00,CLR,SCT,0.00,WeatherDisplay:10.37,2013-01-16 02:16:00,
2013-01-15 21:17:00,30.6,6.1,29.05,North,0,6.1,6.1,35,0.00,CLR,SCT,0.00,WeatherDisplay:10.37,2013-01-16 02:17:00,
2013-01-15 21:21:00,30.2,5.8,29.04,NNW,337,6.1,6.1,35,0.00,CLR,SCT,0.00,WeatherDisplay:10.37,2013-01-16 02:21:00,
2013-01-15 21:22:00,30.2,5.8,29.04,NNW,337,6.1,6.1,35,0.00,CLR,SCT,0.00,WeatherDisplay:10.37,2013-01-16 02:22:00,
2013-01-15 21:23:00,28.6,4.3,29.04,NNW,337,7.9,7.9,35,0.00,CLR,SCT,0.00,WeatherDisplay:10.37,2013-01-16 02:23:00,
2013-01-15 21:27:00,28.8,4.5,29.04,NNW,337,8.1,8.1,35,0.00,CLR,SCT,0.00,WeatherDisplay:10.37,2013-01-16 02:27:00,
2013-01-15 21:28:00,28.8,4.5,29.03,NNW,337,8.1,8.1,35,0.00,CLR,SCT,0.00,WeatherDisplay:10.37,2013-01-16 02:28:00,
2013-01-15 21:33:00,28.9,4.7,29.02,North,0,8.1,8.1,35,0.00,CLR,SCT,0.00,WeatherDisplay:10.37,2013-01-16 02:33:00,
2013-01-15 21:34:00,29.3,5.0,29.02,North,0,8.4,8.4,35,0.00,CLR,SCT,0.00,WeatherDisplay:10.37,2013-01-16 02:34:00,
2013-01-15 21:35:00,29.3,5.0,29.02,NNW,337,8.4,8.4,35,0.00,CLR,SCT,0.00,WeatherDisplay:10.37,2013-01-16 02:35:00,
2013-01-15 21:36:00,29.3,5.0,29.02,NNW,337,8.4,8.4,35,0.00,CLR,SCT,0.00,WeatherDisplay:10.37,2013-01-16 02:36:00,
2013-01-15 21:38:00,29.5,5.1,29.02,NNW,337,8.4,8.4,35,0.00,CLR,SCT,0.00,WeatherDisplay:10.37,2013-01-16 02:38:00,
2013-01-15 21:40:00,29.5,5.1,29.02,North,0,8.4,8.4,35,0.00,CLR,SCT,0.00,WeatherDisplay:10.37,2013-01-16 02:40:00,
2013-01-15 21:43:00,29.7,5.3,29.07,North,0,8.4,8.4,35,0.00,CLR,SCT,0.00,WeatherDisplay:10.37,2013-01-16 02:43:00,
2013-01-15 21:45:00,29.7,5.3,29.08,NNW,337,8.4,8.4,35,0.00,CLR,SCT,0.00,WeatherDisplay:10.37,2013-01-16 02:45:00,
2013-01-15 21:48:00,29.8,5.5,29.08,North,0,8.4,8.4,35,0.00,CLR,SCT,0.00,WeatherDisplay:10.37,2013-01-16 02:48:00,
2013-01-15 21:50:00,26.6,2.6,29.08,NW,315,8.4,8.4,35,0.00,CLR,SCT,0.00,WeatherDisplay:10.37,2013-01-16 02:50:00,
2013-01-15 21:55:00,26.8,2.7,29.09,NW,315,8.4,8.4,35,0.00,CLR,SCT,0.00,WeatherDisplay:10.37,2013-01-16 02:55:00,
2013-01-15 21:57:00,27.0,2.9,29.09,NW,315,8.4,8.4,35,0.00,CLR,SCT,0.00,WeatherDisplay:10.37,2013-01-16 02:57:00,
2013-01-15 22:00:00,27.1,3.1,29.08,North,0,8.4,8.4,35,0.00,CLR,SCT,0.00,WeatherDisplay:10.37,2013-01-16 03:00:00,
2013-01-15 22:02:00,27.3,3.2,29.08,NW,315,8.1,8.1,35,0.00,CLR,SCT,0.00,WeatherDisplay:10.37,2013-01-16 03:02:00,
2013-01-15 22:03:00,27.3,3.2,29.08,NW,315,8.1,8.1,35,0.00,CLR,SCT,0.00,WeatherDisplay:10.37,2013-01-16 03:03:00,
2013-01-15 22:05:00,27.3,3.2,29.10,NW,315,4.0,4.0,35,0.00,CLR,SCT,0.00,WeatherDisplay:10.37,2013-01-16 03:05:00,
2013-01-15 22:08:00,27.5,3.4,29.09,NW,315,4.0,4.0,35,0.00,CLR,SCT,0.00,WeatherDisplay:10.37,2013-01-16 03:08:00,
2013-01-15 22:10:00,27.5,3.4,29.09,NW,315,4.0,4.0,35,0.00,CLR,SCT,0.00,WeatherDisplay:10.37,2013-01-16 03:10:00,
2013-01-15 22:12:00,27.7,3.5,29.09,NNW,337,4.0,4.0,35,0.00,CLR,SCT,0.00,WeatherDisplay:10.37,2013-01-16 03:12:00,
2013-01-15 22:13:00,27.7,3.5,29.09,NNW,337,4.0,4.0,35,0.00,CLR,SCT,0.00,WeatherDisplay:10.37,2013-01-16 03:13:00,
2013-01-15 22:14:00,27.7,3.5,29.09,NNW,337,4.0,4.0,35,0.00,CLR,SCT,0.00,WeatherDisplay:10.37,2013-01-16 03:14:00,
2013-01-15 22:16:00,27.9,3.7,29.09,North,0,4.0,4.0,35,0.00,CLR,SCT,0.00,WeatherDisplay:10.37,2013-01-16 03:16:00,
2013-01-15 22:17:00,27.9,3.7,29.09,North,0,4.0,4.0,35,0.00,CLR,SCT,0.00,WeatherDisplay:10.37,2013-01-16 03:17:00,
2013-01-15 22:21:00,28.0,3.9,29.09,NNW,337,4.0,4.0,35,0.00,CLR,SCT,0.00,WeatherDisplay:10.37,2013-01-16 03:21:00,
2013-01-15 22:22:00,28.0,3.9,29.09,NNW,337,4.0,4.0,35,0.00,CLR,SCT,0.00,WeatherDisplay:10.37,2013-01-16 03:22:00,
2013-01-15 22:23:00,28.2,4.0,29.09,NW,315,4.0,4.0,35,0.00,CLR,SCT,0.00,WeatherDisplay:10.37,2013-01-16 03:23:00,
2013-01-15 22:26:00,24.8,1.0,29.09,NNW,337,4.0,4.0,35,0.00,CLR,SCT,0.00,WeatherDisplay:10.37,2013-01-16 03:26:00,
2013-01-15 22:27:00,24.8,1.0,29.09,NNW,337,4.0,4.0,35,0.00,CLR,SCT,0.00,WeatherDisplay:10.37,2013-01-16 03:27:00,
2013-01-15 22:29:00,24.8,0.4,29.09,NNW,337,4.0,4.0,34,0.00,CLR,SCT,0.00,WeatherDisplay:10.37,2013-01-16 03:29:00,
2013-01-15 22:32:00,24.8,1.0,29.09,NNW,337,4.0,4.0,35,0.00,CLR,SCT,0.00,WeatherDisplay:10.37,2013-01-16 03:32:00,
2013-01-15 22:33:00,24.8,1.0,29.08,NNW,337,4.0,4.0,35,0.00,CLR,SCT,0.00,WeatherDisplay:10.37,2013-01-16 03:33:00,
2013-01-15 22:34:00,24.8,1.0,29.08,NNW,337,4.0,4.0,35,0.00,CLR,SCT,0.00,WeatherDisplay:10.37,2013-01-16 03:34:00,
2013-01-15 22:35:00,25.0,0.5,29.09,NNW,337,4.0,0.0,34,0.00,CLR,SCT,0.00,WeatherDisplay:10.37,2013-01-16 03:35:00,
2013-01-15 22:37:00,25.0,1.1,29.08,NNW,337,4.0,4.0,35,0.00,CLR,SCT,0.00,WeatherDisplay:10.37,2013-01-16 03:37:00,
2013-01-15 22:39:00,25.2,0.7,29.09,NNW,337,4.0,4.0,34,0.00,CLR,SCT,0.00,WeatherDisplay:10.37,2013-01-16 03:39:00,
2013-01-15 22:40:00,25.2,0.7,29.09,NNW,337,4.0,4.0,34,0.00,CLR,SCT,0.00,WeatherDisplay:10.37,2013-01-16 03:40:00,
2013-01-15 22:42:00,25.2,0.7,29.09,NW,315,4.0,4.0,34,0.00,CLR,SCT,0.00,WeatherDisplay:10.37,2013-01-16 03:42:00,
2013-01-15 22:44:00,25.2,0.7,29.09,NW,315,4.9,4.9,34,0.00,CLR,SCT,0.00,WeatherDisplay:10.37,2013-01-16 03:44:00,
2013-01-15 22:48:00,25.2,1.3,29.09,NW,315,4.9,4.9,35,0.00,CLR,SCT,0.00,WeatherDisplay:10.37,2013-01-16 03:48:00,
2013-01-15 22:49:00,25.3,1.5,29.09,NNW,337,4.9,4.9,35,0.00,CLR,SCT,0.00,WeatherDisplay:10.37,2013-01-16 03:49:00,
2013-01-15 22:50:00,25.3,1.5,29.09,NW,315,4.9,4.9,35,0.00,CLR,SCT,0.00,WeatherDisplay:10.37,2013-01-16 03:50:00,
2013-01-15 22:51:00,25.3,1.5,29.09,NW,315,4.9,4.9,35,0.00,CLR,SCT,0.00,WeatherDisplay:10.37,2013-01-16 03:51:00,
2013-01-15 22:54:00,25.3,0.8,29.09,NW,315,4.9,4.9,34,0.00,CLR,SCT,0.00,WeatherDisplay:10.37,2013-01-16 03:54:00,
2013-01-15 22:57:00,25.5,1.0,29.09,NW,315,4.9,4.9,34,0.00,CLR,SCT,0.00,WeatherDisplay:10.37,2013-01-16 03:57:00,
2013-01-15 22:58:00,23.7,-0.6,29.09,NW,315,4.9,4.9,34,0.00,CLR,SCT,0.00,WeatherDisplay:10.37,2013-01-16 03:58:00,
2013-01-15 22:59:00,23.7,-0.6,29.08,NW,315,4.9,4.9,34,0.00,CLR,SCT,0.00,WeatherDisplay:10.37,2013-01-16 03:59:00,
2013-01-15 23:00:00,25.5,1.0,29.08,NW,315,4.9,0.0,34,0.00,CLR,SCT,0.00,WeatherDisplay:10.37,2013-01-16 04:00:00,
2013-01-15 23:04:00,25.5,1.0,29.08,NW,315,4.9,0.0,34,0.00,CLR,SCT,0.00,WeatherDisplay:10.37,2013-01-16 04:04:00,
2013-01-15 23:05:00,25.5,1.0,29.08,NW,315,4.9,0.0,34,0.00,CLR,SCT,0.00,WeatherDisplay:10.37,2013-01-16 04:05:00,
2013-01-15 23:09:00,25.5,1.0,29.08,NW,315,4.9,0.0,34,0.00,CLR,SCT,0.00,WeatherDisplay:10.37,2013-01-16 04:09:00,
2013-01-15 23:10:00,25.5,1.0,29.08,NW,315,4.9,0.0,34,0.00,CLR,SCT,0.00,WeatherDisplay:10.37,2013-01-16 04:10:00,
2013-01-15 23:13:00,25.5,1.0,29.08,NW,315,4.9,0.0,34,0.00,CLR,SCT,0.00,WeatherDisplay:10.37,2013-01-16 04:13:00,
2013-01-15 23:15:00,26.2,1.6,29.08,WNW,292,4.6,0.0,34,0.00,CLR,SCT,0.00,WeatherDisplay:10.37,2013-01-16 04:15:00,
2013-01-15 23:18:00,26.4,1.8,29.08,West,270,1.2,0.0,34,0.00,CLR,SCT,0.00,WeatherDisplay:10.37,2013-01-16 04:18:00,
2013-01-15 23:19:00,26.4,1.8,29.08,West,270,1.2,0.0,34,0.00,CLR,SCT,0.00,WeatherDisplay:10.37,2013-01-16 04:19:00,
2013-01-15 23:22:00,26.4,1.8,29.09,SW,225,1.2,0.0,34,0.00,CLR,SCT,0.00,WeatherDisplay:10.37,2013-01-16 04:22:00,
2013-01-15 23:24:00,26.4,1.8,29.08,SW,225,1.2,0.0,34,0.00,CLR,SCT,0.00,WeatherDisplay:10.37,2013-01-16 04:24:00,
2013-01-15 23:26:00,23.0,-1.2,29.08,SW,225,1.2,0.0,34,0.00,CLR,SCT,0.00,WeatherDisplay:10.37,2013-01-16 04:26:00,
2013-01-15 23:27:00,23.0,-1.2,29.08,SW,225,1.2,0.0,34,0.00,CLR,SCT,0.00,WeatherDisplay:10.37,2013-01-16 04:27:00,
2013-01-15 23:29:00,23.0,-1.2,29.07,SW,225,1.2,0.0,34,0.00,CLR,SCT,0.00,WeatherDisplay:10.37,2013-01-16 04:29:00,
2013-01-15 23:31:00,23.2,-1.1,29.08,SW,225,1.2,0.0,34,0.00,CLR,SCT,0.00,WeatherDisplay:10.37,2013-01-16 04:31:00,
2013-01-15 23:32:00,23.2,-1.1,29.08,SW,225,1.2,0.0,34,0.00,CLR,SCT,0.00,WeatherDisplay:10.37,2013-01-16 04:32:00,
2013-01-15 23:35:00,23.4,-0.9,29.08,SW,225,1.2,0.0,34,0.00,CLR,SCT,0.00,WeatherDisplay:10.37,2013-01-16 04:35:00,
2013-01-15 23:36:00,23.4,-0.9,29.08,SW,225,1.2,0.0,34,0.00,CLR,SCT,0.00,WeatherDisplay:10.37,2013-01-16 04:36:00,
2013-01-15 23:37:00,23.4,-0.9,29.08,SW,225,1.2,0.0,34,0.00,CLR,SCT,0.00,WeatherDisplay:10.37,2013-01-16 04:37:00,
2013-01-15 23:42:00,23.7,-0.6,29.08,SW,225,1.2,0.0,34,0.00,CLR,SCT,0.00,WeatherDisplay:10.37,2013-01-16 04:42:00,
2013-01-15 23:43:00,23.7,-0.6,29.07,SW,225,1.2,0.0,34,0.00,CLR,SCT,0.00,WeatherDisplay:10.37,2013-01-16 04:43:00,
2013-01-15 23:47:00,23.7,-0.6,29.06,SW,225,1.2,0.0,34,0.00,CLR,SCT,0.00,WeatherDisplay:10.37,2013-01-16 04:47:00,
2013-01-15 23:48:00,23.7,-0.6,29.06,SW,225,1.2,0.0,34,0.00,CLR,SCT,0.00,WeatherDisplay:10.37,2013-01-16 04:48:00,
2013-01-15 23:49:00,23.9,-0.4,29.07,SW,225,1.2,0.0,34,0.00,CLR,SCT,0.00,WeatherDisplay:10.37,2013-01-16 04:49:00,
2013-01-15 23:53:00,24.1,-0.3,29.07,SW,225,1.2,0.0,34,0.00,CLR,SCT,0.00,WeatherDisplay:10.37,2013-01-16 04:53:00,
2013-01-15 23:54:00,24.1,-0.3,29.07,SW,225,1.2,0.0,34,0.00,CLR,SCT,0.00,WeatherDisplay:10.37,2013-01-16 04:54:00,
2013-01-15 23:55:00,24.1,-0.3,29.07,SW,225,1.2,0.0,34,0.00,CLR,SCT,0.00,WeatherDisplay:10.37,2013-01-16 04:55:00,
2013-01-15 23:59:00,24.4,-0.6,29.07,SW,225,1.2,0.0,33,0.00,CLR,SCT,0.00,WeatherDisplay:10.37,2013-01-16 04:59:00,